GFSSGP_925_temp_057.txt.gz
Temp
22 22 22 22 23 24 25 27 27 26 27 31 32 30 26 28 26 24 19 22 22 21 21 21 21 21 21 22 22 22 21 21 21 22 21 21 21 21 21 21 21 21 21 21 21 21 21 21 21
23 22 22 22 24 23 25 28 28 26 31 31 31 30 28 24 23 20 20 22 22 22 21 21 22 22 22 22 22 22 21 22 21 21 21 21 21 21 21 21 21 21 21 21 21 21 21 21 22
23 24 23 23 24 24 24 27 28 29 32 30 29 29 28 22 22 22 22 23 23 22 22 21 22 22 22 22 22 22 21 21 22 21 21 21 21 21 21 21 21 21 21 21 21 21 21 21 22
24 22 23 24 25 25 25 27 31 32 31 30 29 27 26 23 23 22 23 23 23 22 22 21 21 21 22 22 22 22 22 22 21 21 21 21 21 21 21 21 21 21 21 21 21 21 21 21 22
24 23 24 25 26 24 28 31 31 31 30 28 28 25 23 23 23 23 23 23 23 22 22 21 22 22 22 22 22 21 22 22 21 21 21 21 21 21 21 21 21 21 21 21 21 21 21 22 22
23 22 24 24 24 26 29 30 34 32 30 27 25 25 23 23 23 23 24 24 23 22 22 21 21 22 22 21 21 22 22 22 21 21 21 21 21 21 21 21 21 21 21 21 21 22 22 22 23
25 25 24 24 24 27 30 27 33 31 29 27 27 24 23 24 24 24 25 24 23 22 22 21 22 21 21 21 21 22 21 22 22 22 22 22 22 22 22 22 22 22 22 22 22 23 23 23 23
28 27 28 24 26 27 33 34 33 31 29 29 28 24 22 24 25 25 25 24 23 22 22 21 22 21 21 21 21 21 21 21 21 22 22 22 22 22 23 23 23 23 22 22 23 23 23 23 24
30 27 28 27 27 30 31 31 32 33 30 29 30 26 25 25 25 25 25 25 23 23 22 22 21 22 22 22 21 22 22 22 22 23 23 23 23 22 23 24 24 24 23 23 23 23 23 24 24
29 27 28 30 30 30 32 31 33 32 29 26 26 26 26 26 25 25 24 25 23 23 23 23 22 22 22 22 22 23 23 23 24 23 23 23 23 23 23 24 24 24 23 23 24 24 23 24 24
31 29 28 30 31 32 33 33 35 32 27 26 25 26 27 26 26 26 25 25 24 24 23 24 23 23 23 23 24 24 24 24 23 24 24 24 24 24 23 24 24 24 22 25 23 24 23 24 24
31 30 30 31 31 33 32 33 35 33 29 27 27 27 27 26 26 26 26 26 26 25 25 25 24 24 24 24 25 25 25 24 24 25 25 25 24 24 24 24 24 24 23 24 24 23 24 24 25
33 30 32 32 32 31 32 33 33 30 29 28 27 27 27 26 26 26 27 27 26 26 26 25 26 25 25 25 26 26 25 25 25 25 26 24 24 25 25 25 24 24 24 25 24 25 25 25 25
33 31 33 33 31 32 32 32 32 31 29 28 27 27 27 27 27 26 27 27 27 27 27 26 26 26 26 26 25 26 26 27 26 26 27 25 25 25 24 25 24 25 25 24 24 24 25 25 26
34 34 32 32 31 29 32 30 28 27 30 28 28 27 27 27 27 27 27 27 27 28 27 26 27 27 27 26 26 26 27 27 27 26 26 26 26 25 25 25 25 25 25 25 25 25 25 26 26
32 33 31 34 33 33 31 24 26 28 26 29 29 28 27 27 27 27 27 27 27 28 26 27 26 27 27 27 26 26 27 27 28 26 26 27 26 25 25 25 25 24 25 25 25 25 26 26 26
31 31 32 33 35 36 33 22 25 28 26 29 29 29 28 27 27 27 27 27 28 28 26 26 26 26 26 26 26 26 26 26 27 27 27 27 26 25 25 25 25 25 25 25 25 25 25 25 25
29 30 31 33 35 36 29 27 24 26 27 27 26 25 29 28 28 28 28 28 28 28 28 27 26 26 26 26 25 25 26 26 27 27 27 27 26 25 25 25 25 25 25 25 25 26 25 26 27
32 33 33 35 36 35 33 28 27 27 29 29 28 26 27 30 30 30 29 29 28 28 28 28 27 26 26 25 25 25 25 25 27 27 27 26 26 25 25 24 25 25 25 25 25 26 26 26 26
32 32 32 35 36 35 31 28 28 27 26 27 27 26 26 31 31 31 31 30 29 28 28 28 28 26 26 25 25 25 25 26 26 27 27 26 26 25 25 25 25 25 25 25 25 25 25 26 26
31 31 32 33 35 35 32 28 28 28 26 26 27 27 29 31 31 30 30 30 29 27 27 28 28 27 26 25 25 25 25 26 26 26 27 26 26 26 26 25 25 25 25 25 25 25 25 25 26
30 33 34 34 34 30 34 29 26 28 28 27 28 28 29 32 32 31 30 30 29 27 27 28 28 27 26 25 25 25 25 25 26 27 27 27 27 26 26 25 25 25 25 25 25 25 25 25 26
32 33 33 33 33 33 33 32 28 29 29 28 29 29 29 31 32 31 31 31 30 28 26 26 27 27 26 26 26 25 25 26 27 27 27 27 27 27 26 26 25 25 25 25 25 25 25 25 26
34 33 32 33 32 30 31 32 30 31 30 30 30 30 30 32 33 32 31 31 30 28 27 25 26 26 26 26 26 26 26 26 26 27 27 27 27 27 26 26 26 25 25 25 25 25 25 25 25
33 30 28 28 29 30 30 32 30 34 34 33 33 31 31 34 33 32 31 31 30 29 27 26 25 25 25 26 26 25 26 26 26 27 27 27 27 27 26 26 26 26 25 25 25 25 25 25 25
31 31 27 26 27 30 31 31 32 34 38 38 37 34 35 34 34 33 32 31 31 30 28 26 25 25 25 25 25 26 25 25 26 27 27 27 27 27 27 27 26 26 26 26 25 25 25 25 26
31 31 31 29 30 29 30 32 33 35 35 37 37 36 36 35 34 34 32 32 31 30 29 27 25 25 24 24 24 24 25 25 25 26 27 27 28 28 28 27 27 26 26 26 26 25 25 25 25
33 32 30 30 27 28 31 30 32 33 34 34 36 37 37 36 35 34 33 32 31 31 29 28 26 25 24 24 24 24 24 25 25 25 27 27 27 28 28 28 27 26 26 26 25 25 25 25 25
32 31 32 29 27 26 27 31 33 33 35 35 35 34 37 36 36 35 33 33 31 31 30 29 27 25 24 24 24 24 24 24 24 25 26 27 28 28 27 28 27 26 26 26 25 25 25 25 25
33 32 30 30 27 28 27 31 33 35 36 36 35 36 34 37 36 35 34 33 32 31 31 29 28 26 25 25 24 24 24 24 23 24 25 26 27 28 28 26 27 27 26 26 25 25 25 25 25

GFSSGP_925_temp_060.txt.gz
Temp
22 22 21 21 23 23 25 26 24 27 29 30 30 29 26 24 25 23 20 21 21 21 21 21 21 21 21 22 21 21 21 21 22 21 21 21 21 21 21 21 21 21 21 21 20 21 21 20 20
23 21 21 22 24 24 25 25 25 26 27 29 29 28 26 22 22 19 19 21 21 21 21 21 21 21 21 22 21 21 21 21 21 21 21 21 21 21 21 21 21 21 21 21 20 21 21 20 20
23 23 22 23 24 24 25 26 27 29 30 30 28 27 24 22 21 20 21 21 21 21 22 21 21 21 21 22 21 21 21 21 21 21 21 21 21 20 21 21 21 21 21 20 21 21 22 21 21
23 22 23 24 25 25 25 26 27 29 30 29 27 24 23 23 22 21 21 21 21 21 21 21 21 21 21 21 21 21 21 21 21 21 21 21 21 21 21 21 20 21 20 21 21 21 22 22 22
23 23 24 24 25 24 25 26 25 27 28 27 27 22 21 22 22 22 21 21 21 21 21 21 21 22 22 21 21 21 21 21 21 21 21 21 21 21 21 21 21 21 21 21 21 22 22 22 22
23 21 24 24 25 27 28 27 26 28 27 25 24 24 21 22 22 22 21 21 22 21 21 21 22 22 22 21 21 21 21 21 21 21 21 21 22 21 21 21 21 21 21 21 21 21 22 22 22
23 24 24 24 25 25 29 27 27 28 27 26 26 22 20 22 22 22 22 22 22 21 21 21 21 21 21 21 21 21 21 21 21 21 21 21 22 22 21 21 21 21 21 22 22 22 22 23 23
23 24 25 24 25 26 30 29 29 29 27 27 25 22 21 23 22 23 22 22 22 21 21 21 22 22 21 21 21 21 21 21 21 21 22 22 22 22 22 22 22 22 22 23 22 23 23 23 23
27 25 24 26 27 28 28 30 29 28 27 28 27 24 24 23 23 23 22 21 21 21 21 21 22 22 21 21 21 21 22 22 22 22 23 23 22 23 23 23 23 23 23 23 23 23 23 23 23
26 24 25 29 28 29 30 29 28 27 26 26 25 25 24 24 23 23 22 21 21 21 21 22 22 22 22 22 22 23 22 22 23 23 23 23 22 23 23 23 23 23 23 23 24 23 23 23 23
27 25 28 30 31 29 30 31 30 27 25 25 23 24 25 24 24 24 23 21 21 22 22 22 22 22 23 23 23 23 23 24 24 23 23 23 23 23 23 23 23 23 24 24 24 24 24 25 23
26 29 29 30 32 31 31 31 29 29 26 26 25 25 25 24 24 24 23 22 22 22 22 22 22 23 24 24 24 24 24 24 24 24 24 24 24 24 23 24 23 23 24 24 25 25 25 25 24
28 29 31 32 31 31 32 31 29 28 27 26 26 25 25 25 25 25 24 23 22 22 23 23 23 23 24 24 25 25 24 24 24 24 24 24 24 24 24 24 24 24 24 24 24 25 25 25 24
30 30 31 32 31 29 31 30 28 27 27 26 26 25 25 25 25 25 25 24 23 23 23 24 24 24 24 24 25 25 25 25 25 24 24 25 25 24 24 24 24 24 23 24 24 24 25 25 24
30 29 31 32 32 30 31 28 26 26 27 26 26 26 26 25 25 25 26 25 24 24 24 24 24 25 24 24 25 25 25 25 25 25 25 25 25 25 24 25 25 24 24 25 24 24 24 25 24
29 29 28 31 30 30 29 27 26 26 26 26 26 26 26 25 26 26 26 26 25 25 25 25 24 25 25 25 25 25 25 26 26 25 25 25 25 25 24 24 25 24 24 24 24 24 25 25 26
27 26 28 30 32 30 28 26 27 27 26 26 26 26 26 26 26 26 26 26 26 26 26 25 25 25 25 25 26 26 26 25 26 27 26 26 25 25 25 25 25 24 25 25 25 25 25 25 26
25 27 28 30 32 31 28 27 27 27 27 26 26 26 26 26 26 26 26 26 27 26 27 26 25 25 26 26 26 27 26 26 26 26 26 26 25 25 25 25 25 25 24 25 24 25 25 26 26
28 28 28 30 32 29 27 27 27 27 25 27 26 26 26 26 27 27 26 26 27 26 25 25 25 26 26 26 26 26 26 26 26 25 26 26 26 25 25 25 25 25 25 25 25 25 25 25 26
28 28 29 31 32 33 29 28 28 26 26 27 27 26 26 26 26 27 27 27 27 26 25 25 25 26 26 26 26 26 26 26 26 26 26 26 26 25 25 25 25 25 25 25 25 25 25 25 26
28 28 29 29 32 31 29 26 26 26 27 27 29 27 28 27 27 27 27 27 27 26 25 24 25 26 26 26 26 25 26 26 25 26 26 26 25 25 25 25 25 24 24 25 25 25 25 25 25
27 30 31 31 30 29 30 24 25 26 26 26 26 28 28 28 29 28 28 27 27 27 25 25 25 26 25 25 25 25 24 24 25 26 26 26 26 25 25 25 25 25 25 25 25 25 25 25 25
29 30 30 30 29 29 31 27 25 27 26 27 28 27 28 27 30 29 29 28 28 28 26 25 25 25 25 25 26 25 24 24 25 25 26 26 26 25 25 26 25 25 25 25 25 25 25 25 25
31 30 29 29 27 26 28 30 27 26 27 29 29 28 28 28 30 30 30 29 28 27 26 26 24 25 25 25 25 25 24 25 25 25 26 26 26 26 26 26 25 25 25 25 25 25 25 24 25
30 27 25 24 26 26 27 27 30 29 29 30 29 30 29 29 28 31 30 29 28 27 26 26 25 24 24 25 24 25 25 25 25 25 26 26 26 26 26 26 26 25 25 25 25 25 25 25 25
27 28 25 25 24 27 27 27 30 30 32 31 30 31 30 30 29 30 30 30 29 27 26 26 25 25 24 25 24 25 25 25 25 25 26 26 27 27 27 26 26 25 25 25 25 25 25 25 25
28 27 29 25 25 25 26 29 31 31 30 32 31 31 31 31 30 30 31 30 30 27 26 25 25 25 24 24 24 25 25 25 25 25 26 26 27 27 27 27 26 26 25 25 25 25 25 25 25
30 28 28 23 26 25 26 28 31 30 31 30 32 32 31 31 31 31 32 30 30 28 27 26 25 25 25 24 24 24 24 25 25 25 25 26 27 26 27 27 27 26 26 26 25 25 25 25 25
29 29 28 27 23 27 25 29 29 29 30 30 31 33 32 31 31 32 32 31 30 29 28 26 25 25 24 24 24 24 24 24 24 25 25 26 26 26 27 27 27 26 26 26 25 25 25 25 24
29 27 28 28 25 23 25 30 32 31 30 31 31 34 33 32 32 33 32 32 30 30 28 27 25 25 24 24 24 23 23 23 23 23 24 25 26 26 27 26 26 27 26 26 26 25 25 24 24

GFSSGP_925_temp_063.txt.gz
Temp
20 20 20 21 22 23 24 25 24 27 28 29 28 28 26 23 24 22 19 21 21 21 21 21 21 21 21 21 21 21 21 21 21 21 21 21 21 21 21 21 21 20 20 20 20 20 20 20 20
20 20 21 21 24 23 25 24 25 26 26 28 27 26 24 22 21 19 19 21 21 21 21 21 21 21 21 21 21 21 21 21 21 21 21 21 21 21 21 21 21 21 20 20 20 20 20 20 20
21 22 22 23 24 24 25 25 26 28 27 29 25 24 23 22 20 20 20 21 21 21 21 21 21 21 21 21 21 21 21 21 21 21 21 21 21 21 21 21 21 20 20 20 20 20 20 21 20
21 22 22 23 25 24 25 26 26 29 27 25 24 22 22 22 21 20 20 21 21 21 21 21 21 21 21 21 21 21 21 21 21 21 21 21 21 21 21 21 21 20 21 21 21 21 21 21 22
23 22 24 24 25 25 26 25 27 27 26 25 25 22 20 21 21 20 20 21 21 21 21 21 21 21 21 21 21 21 21 21 21 22 22 21 21 21 21 21 21 21 22 21 21 21 22 22 22
22 22 24 24 25 26 27 27 26 27 25 24 22 22 21 21 20 20 20 21 21 21 21 21 21 21 21 21 21 21 21 21 21 22 22 21 21 21 21 21 21 21 21 21 22 22 22 22 22
23 23 25 25 26 26 28 28 25 26 26 25 25 21 20 21 21 21 21 21 21 21 21 21 21 21 21 21 21 21 21 21 21 21 21 21 21 21 21 21 21 21 21 21 22 22 22 22 22
23 24 24 24 26 26 29 27 28 27 27 26 24 21 20 21 21 21 21 21 21 21 21 21 21 21 21 21 21 21 21 21 21 21 21 21 21 21 21 22 21 21 21 22 22 22 22 23 23
26 23 23 26 26 28 28 26 28 28 26 27 26 23 23 21 21 20 20 20 20 20 21 21 21 21 21 21 21 21 21 22 21 21 22 22 22 22 22 22 22 22 22 22 22 22 23 23 23
24 22 25 28 29 28 29 29 27 26 26 24 23 23 22 22 21 20 20 20 20 20 20 21 21 22 22 22 21 22 22 22 22 22 22 22 22 22 22 22 22 22 22 23 23 23 23 23 23
25 23 26 28 30 29 29 29 29 26 24 24 22 22 23 22 21 21 21 20 20 20 21 21 22 22 22 22 23 22 23 23 23 23 23 23 23 23 23 23 23 23 23 23 23 23 23 23 23
24 26 26 28 30 30 29 29 28 27 27 26 24 24 23 22 22 22 21 20 20 20 21 21 22 22 23 23 23 24 24 23 23 23 23 23 23 23 23 23 23 24 24 23 23 24 23 24 24
25 26 28 29 30 30 31 30 29 27 26 25 25 24 23 23 23 22 21 21 21 20 21 22 22 23 24 24 24 24 24 24 24 23 23 24 24 24 23 23 24 23 24 24 24 24 24 24 24
27 28 28 29 30 30 31 29 27 26 26 25 24 24 24 23 23 23 22 21 21 21 22 22 23 24 24 24 24 25 24 24 24 24 24 24 24 24 24 24 24 24 24 24 24 24 24 24 24
27 27 28 29 31 29 30 27 26 25 25 24 24 24 24 24 24 23 22 22 22 22 23 23 23 24 24 24 25 24 24 24 24 24 24 24 24 24 24 24 24 24 24 24 24 24 24 25 25
27 26 25 28 31 31 30 26 25 25 25 24 24 24 24 24 24 24 23 23 22 22 23 23 24 24 24 24 24 25 24 24 25 24 24 24 24 24 25 25 24 24 24 24 24 24 24 24 24
24 24 25 28 30 29 30 26 25 25 24 24 24 24 25 24 25 25 24 23 23 23 23 23 23 24 24 25 25 24 24 26 26 25 25 25 24 25 25 25 24 24 24 24 25 24 25 25 24
23 24 26 27 29 29 29 26 24 24 24 24 24 25 25 24 24 25 25 24 24 24 24 24 24 24 24 25 25 24 25 25 26 26 25 25 25 25 25 25 24 24 24 24 24 24 25 24 25
26 27 27 28 30 29 29 27 25 24 24 24 24 24 25 25 25 25 25 25 24 24 24 24 24 24 24 24 24 24 25 25 25 25 25 24 25 25 25 25 25 25 24 24 24 24 24 25 25
25 25 25 28 30 28 28 28 26 25 25 25 25 24 25 25 25 26 25 25 25 24 24 24 24 25 25 24 24 25 26 26 25 26 25 25 25 25 25 25 25 25 25 24 24 24 24 25 25
24 24 26 27 29 29 28 27 27 26 25 26 26 25 25 25 25 25 25 26 26 24 24 24 25 25 25 24 24 25 26 26 26 25 25 26 25 25 25 25 25 25 24 24 25 24 24 25 24
23 26 28 28 28 28 28 24 24 27 26 25 26 26 25 25 26 26 26 25 26 25 25 25 25 24 24 24 24 25 25 24 25 25 26 26 26 25 25 25 25 25 25 24 25 24 24 25 25
26 28 27 28 27 27 28 25 25 26 26 25 26 27 27 26 26 26 26 26 26 26 24 24 24 24 24 24 25 25 24 25 25 25 25 25 26 25 25 25 25 25 25 25 24 24 24 24 25
28 28 27 27 27 26 27 27 26 24 26 27 27 27 27 27 27 27 27 26 26 26 26 24 24 24 24 24 24 25 25 25 24 25 25 25 25 26 25 25 24 25 25 25 25 24 24 25 24
27 24 23 23 24 25 25 25 29 27 29 29 28 28 28 28 28 28 27 27 26 26 26 24 23 23 23 24 24 24 25 25 26 25 25 25 25 25 25 25 25 25 25 25 25 25 24 24 24
26 25 22 22 22 26 25 24 28 29 29 30 29 29 29 28 28 28 28 28 28 27 27 25 23 23 23 23 23 24 24 25 26 25 25 25 26 26 26 26 25 25 25 25 25 24 25 24 24
25 25 26 23 23 22 25 25 28 30 28 29 29 29 29 28 29 28 29 29 29 27 27 25 24 23 23 23 23 23 24 24 25 25 25 25 25 26 26 26 26 26 25 25 25 24 24 24 24
26 25 26 21 24 23 24 26 29 28 28 27 28 29 29 29 29 29 29 29 28 27 27 26 25 24 23 23 23 23 24 25 25 25 25 25 25 26 26 26 26 26 26 26 25 24 24 24 24
25 26 25 25 22 26 23 26 25 28 28 28 29 29 30 30 29 29 29 30 29 28 26 25 25 24 24 23 23 23 23 23 24 24 25 25 25 25 26 26 26 26 26 26 25 25 25 24 24
19 20 25 25 23 21 23 28 29 28 28 28 28 31 31 30 30 30 29 30 30 29 27 25 25 24 24 24 23 23 23 23 23 24 24 25 26 26 26 26 26 26 26 26 25 25 25 25 24

GFSSGP_925_temp_069.txt.gz
Temp
20 20 20 20 23 24 26 25 25 26 27 28 29 28 27 25 26 25 21 20 21 21 21 21 21 21 21 21 21 21 22 22 22 21 21 21 22 22 21 20 20 21 20 20 20 20 20 20 21
20 20 20 21 25 26 27 25 25 26 28 28 27 27 27 24 23 21 20 21 21 21 22 21 21 21 21 21 21 21 22 22 21 21 21 21 21 21 20 20 20 20 20 20 20 20 20 20 20
20 21 21 23 25 27 27 27 26 25 28 28 24 25 25 22 22 22 21 21 21 21 21 21 21 21 21 22 21 21 21 21 21 21 21 21 21 21 21 21 21 21 20 20 20 20 20 20 20
21 21 21 24 27 27 27 28 28 27 28 27 26 24 23 22 22 22 21 21 22 21 21 21 21 21 22 21 21 21 20 21 21 21 21 21 21 21 21 21 20 20 20 20 20 20 20 21 21
22 22 25 26 25 27 27 27 28 28 27 26 26 23 21 20 21 21 21 22 22 22 22 21 21 21 21 21 21 20 21 21 21 21 21 20 21 21 21 21 21 21 21 21 20 21 21 21 21
23 24 26 27 26 27 27 26 28 28 26 25 25 24 21 20 21 21 22 22 22 22 22 21 21 21 21 21 20 21 21 21 21 21 21 21 21 21 21 21 21 20 21 21 21 21 22 21 21
23 24 26 27 27 28 28 27 28 28 26 26 26 24 21 21 21 21 22 22 22 22 22 22 22 21 22 21 20 21 21 21 21 21 21 21 21 21 21 21 21 21 21 21 21 21 22 22 22
25 25 27 27 27 29 28 28 28 28 27 27 26 24 22 21 21 21 22 22 22 22 21 21 21 22 22 21 21 21 21 21 21 21 21 21 21 21 21 22 21 21 22 21 22 22 22 22 22
26 25 27 28 29 29 28 28 28 28 26 26 26 25 25 21 21 22 21 21 21 21 22 22 21 21 21 21 21 21 21 21 20 21 21 22 21 21 22 22 22 22 22 22 22 22 22 22 22
26 25 28 29 30 29 29 29 28 28 27 25 25 25 22 22 22 22 22 22 22 21 21 22 22 21 21 22 21 21 21 22 21 21 21 21 22 22 22 22 22 22 22 22 22 22 22 22 23
26 25 27 29 30 30 30 29 29 28 27 26 25 23 23 23 22 22 22 22 22 22 22 21 21 21 21 21 21 21 21 21 21 22 22 22 22 22 22 22 22 22 22 22 22 22 22 22 22
25 26 27 29 30 30 29 30 29 29 30 29 26 24 24 24 23 22 23 22 22 21 22 21 21 20 21 21 21 21 21 21 22 21 22 22 22 23 23 23 22 22 22 22 23 22 23 21 22
26 27 28 29 29 30 30 30 30 29 28 27 25 24 24 25 24 22 23 22 21 21 21 21 20 20 20 20 21 21 21 22 22 22 23 23 23 23 23 23 22 22 22 22 23 22 22 22 22
28 28 28 29 30 30 30 31 30 27 27 25 24 24 25 25 24 23 23 23 22 21 21 21 21 20 20 21 22 21 21 22 22 22 23 23 23 23 23 23 22 21 22 23 23 24 23 22 22
27 27 28 29 30 31 31 29 29 26 26 25 25 24 25 25 24 23 23 23 22 21 21 21 21 21 21 22 22 22 22 22 22 22 23 23 23 23 23 23 23 22 23 23 24 24 24 23 23
27 27 28 30 31 31 31 31 26 26 26 25 24 24 24 25 24 23 23 23 22 22 21 21 22 21 21 21 23 22 22 22 23 23 23 23 23 23 24 24 23 23 23 24 23 23 23 24 24
26 29 28 29 31 32 31 30 26 26 26 25 25 25 25 25 24 24 23 23 22 22 21 21 21 22 21 23 22 23 23 24 23 24 24 24 23 23 23 24 24 23 23 23 23 23 24 24 24
28 28 28 29 31 31 31 30 26 26 26 26 25 25 25 25 25 24 24 23 23 22 21 21 21 21 22 22 22 22 22 22 23 24 25 25 24 24 23 24 24 23 24 23 23 24 24 23 24
27 27 29 29 31 31 31 31 28 26 26 26 26 25 25 26 26 25 24 24 23 22 22 21 21 21 21 21 22 22 23 23 23 25 25 25 25 24 23 23 23 23 23 23 23 23 23 23 24
27 27 28 30 30 30 31 31 30 26 26 26 26 25 26 26 26 25 24 24 23 23 22 21 21 21 21 22 22 22 23 23 23 25 25 25 25 25 24 24 23 24 24 24 24 23 24 23 23
26 27 27 29 30 31 30 30 28 27 27 27 27 27 26 26 26 26 25 24 24 23 22 22 22 22 22 22 22 22 23 23 23 23 25 26 25 25 24 24 24 24 23 24 24 24 24 25 23
26 27 27 27 28 29 31 30 29 29 27 26 27 27 27 27 27 27 26 25 25 24 23 22 22 23 22 22 22 22 24 24 24 24 24 25 25 25 25 24 24 24 23 24 24 23 23 24 25
26 27 27 27 27 28 29 29 32 29 28 28 28 28 28 28 28 27 27 26 25 25 24 23 22 23 23 22 23 23 23 24 24 23 24 25 25 25 25 25 24 24 23 24 24 24 24 23 24
27 27 27 28 28 27 28 29 31 30 30 30 30 29 28 28 28 28 27 26 26 25 24 24 22 23 23 22 23 23 23 23 23 23 24 24 24 24 25 25 25 24 24 24 24 24 24 23 23
27 27 26 25 26 27 30 28 30 32 32 33 31 30 29 29 29 28 28 27 26 25 25 24 23 22 23 23 22 23 23 23 23 23 24 24 24 24 24 25 25 24 25 24 24 24 24 24 23
26 27 27 25 27 28 29 28 30 32 33 32 32 32 31 29 29 28 28 27 26 26 25 24 23 22 22 22 22 23 24 23 23 23 24 24 24 24 24 25 25 25 25 25 24 23 23 23 23
26 26 29 27 26 28 30 29 31 31 33 34 33 32 31 30 29 29 28 27 27 26 25 24 24 23 22 23 23 23 23 23 23 24 24 24 24 24 25 25 25 25 25 25 24 24 24 23 23
26 28 26 26 25 26 28 29 30 31 32 33 32 32 32 32 30 30 29 28 27 26 25 25 24 23 23 23 23 23 23 24 24 23 23 24 25 25 24 26 26 25 25 25 24 23 23 23 23
23 25 26 27 27 27 27 29 31 32 32 33 34 33 33 32 31 31 30 28 27 27 26 25 24 23 23 23 23 23 23 23 23 23 23 23 25 25 25 25 26 25 25 25 24 24 23 23 23
19 23 25 26 26 27 28 29 32 32 33 32 32 33 33 33 32 31 31 29 28 27 27 26 25 25 24 23 23 23 23 23 23 23 23 23 24 26 26 25 25 25 25 25 24 23 24 23 23

GFSSGP_925_temp_072.txt.gz
Temp
21 22 23 23 24 27 28 27 27 30 30 32 31 30 30 30 29 26 25 25 25 24 23 22 21 21 21 22 22 22 22 22 22 22 21 21 21 21 21 21 21 21 21 20 20 20 20 21 21
23 23 22 22 27 28 30 26 27 29 31 31 31 30 30 28 28 26 25 25 25 25 24 23 21 21 21 21 22 22 22 21 21 21 21 21 21 21 21 21 21 21 21 20 20 20 20 21 21
24 23 23 25 28 30 31 29 30 30 31 28 29 30 30 27 27 26 26 25 25 25 25 22 22 21 21 21 21 22 22 21 21 22 22 22 21 21 21 21 21 20 21 20 20 20 20 20 20
25 23 26 25 29 30 30 29 28 30 30 31 30 28 27 25 27 26 25 25 25 25 25 21 21 21 21 21 21 21 21 21 21 21 22 21 21 21 21 21 21 21 21 20 20 20 20 21 21
26 25 26 29 29 30 31 32 31 29 30 30 31 27 25 25 25 25 26 26 26 26 24 22 22 22 21 21 21 21 21 21 21 21 21 21 21 21 21 21 21 21 21 21 21 21 21 21 21
25 28 29 29 27 31 32 30 32 32 31 31 30 28 25 24 25 26 26 26 26 26 25 23 22 22 21 21 21 21 21 21 21 21 21 21 21 22 21 21 21 21 21 21 21 21 22 22 22
25 28 30 29 28 31 31 31 32 31 31 31 31 29 24 25 26 26 26 27 27 26 25 24 23 22 21 21 21 21 21 21 21 21 21 22 21 21 21 21 21 21 21 21 21 22 22 22 22
28 29 31 30 30 31 32 31 32 33 31 32 31 28 24 25 24 26 27 26 27 26 25 24 24 24 23 22 21 21 21 21 21 21 21 21 21 22 22 22 21 21 21 21 22 22 22 22 22
30 29 31 33 30 33 30 30 30 32 30 30 30 30 28 23 24 27 27 26 26 26 25 25 25 24 24 24 22 21 21 21 22 22 22 22 25 24 24 23 22 21 21 21 22 22 22 22 23
30 30 32 34 34 34 32 33 32 31 30 29 29 29 26 23 24 27 27 27 26 26 26 26 26 25 24 25 23 24 23 24 24 24 23 25 24 24 24 23 22 22 21 22 22 23 23 23 25
31 29 32 33 34 32 34 33 33 32 31 31 29 28 27 25 25 27 27 27 27 26 26 26 25 25 25 25 24 25 25 24 23 23 23 24 24 24 25 24 24 24 23 25 24 23 25 25 25
30 31 31 33 33 32 33 34 33 33 33 33 31 29 28 28 28 28 27 27 27 26 26 25 24 24 24 24 25 25 25 25 25 24 23 23 25 24 25 25 24 24 24 24 25 25 24 24 24
30 32 32 33 33 33 33 33 34 33 33 32 30 29 29 29 28 28 27 27 26 26 26 25 24 23 23 23 25 25 25 25 25 24 23 24 25 23 24 24 25 25 24 24 24 25 25 25 25
32 32 33 33 33 33 32 34 33 33 32 31 30 29 29 29 28 27 27 27 26 26 25 25 24 23 23 23 23 24 25 25 25 25 24 23 24 23 24 24 25 25 25 25 25 24 25 26 26
32 31 32 33 33 33 34 33 33 32 31 30 30 29 30 30 28 27 27 27 26 25 25 25 24 23 23 23 23 24 24 25 25 25 23 23 24 24 23 24 25 25 24 23 24 24 25 26 26
31 32 32 34 34 34 34 34 33 31 31 30 29 29 29 29 28 27 27 27 26 26 25 25 25 25 23 23 23 24 25 25 25 25 25 24 23 23 23 24 24 23 24 25 25 25 26 27 26
32 32 32 34 35 35 34 34 32 32 32 30 30 29 29 29 29 27 27 27 26 26 25 25 25 25 24 23 23 24 24 25 25 25 26 24 24 24 24 23 24 23 24 26 25 26 26 26 27
32 32 35 34 34 34 34 34 32 31 32 31 30 29 29 29 29 27 27 27 27 26 25 25 25 25 24 24 23 24 25 25 25 25 26 24 24 24 24 23 24 24 25 25 26 26 26 27 27
32 33 34 34 35 34 34 35 33 31 31 31 31 30 30 30 29 28 27 27 27 26 25 24 24 24 23 24 24 25 25 25 25 26 25 24 24 24 24 25 24 23 24 26 24 25 25 26 26
31 31 32 35 35 34 35 34 35 32 31 32 32 30 30 30 30 29 27 27 27 26 25 24 24 23 23 24 25 26 26 26 26 26 25 25 24 24 24 24 25 23 24 24 24 24 27 26 26
30 31 32 33 34 33 34 34 34 34 32 32 32 32 31 31 30 30 28 28 27 27 26 25 24 23 23 25 24 24 25 25 25 26 26 25 25 25 24 24 24 24 23 24 24 25 25 28 26
30 31 31 31 31 32 34 33 34 35 32 32 32 32 32 31 31 31 29 28 28 27 26 25 24 24 23 23 25 25 26 27 27 27 27 26 25 25 25 24 24 24 25 24 24 25 26 26 27
30 32 31 31 31 32 33 33 35 36 33 33 33 33 33 32 32 32 31 29 28 28 27 26 24 24 24 23 25 24 25 27 27 27 26 25 25 25 25 25 24 24 25 24 24 24 24 26 27
30 30 30 31 31 30 32 33 35 34 34 34 34 34 33 33 33 32 31 30 29 28 27 27 25 24 23 24 23 24 26 26 27 26 27 26 26 26 25 25 24 24 25 24 24 24 24 24 25
29 29 29 29 30 30 34 33 34 36 36 36 35 34 34 34 34 33 32 31 29 29 28 27 26 24 24 24 24 24 24 25 25 25 26 27 27 27 27 24 24 25 24 24 24 24 24 24 25
29 30 30 29 31 32 33 32 34 36 35 36 37 37 36 34 34 33 32 31 30 29 28 27 26 24 24 24 24 24 24 25 25 25 27 27 27 28 27 25 25 25 25 25 24 24 25 25 24
30 29 32 32 33 32 34 33 35 36 36 35 36 36 36 36 35 34 33 31 30 29 28 27 27 24 24 25 24 24 24 24 26 26 26 26 26 27 26 25 25 25 25 25 25 25 25 25 24
28 31 29 30 29 29 32 33 33 34 34 36 36 36 37 37 36 35 34 32 31 30 29 28 26 25 25 25 25 25 25 24 25 25 25 26 26 26 26 25 25 25 25 25 24 26 25 25 25
28 28 29 31 31 30 31 33 36 35 35 35 36 37 38 38 37 36 35 33 31 31 30 28 27 26 25 26 25 25 25 25 25 25 25 25 25 25 25 25 25 25 25 25 25 25 26 25 25
25 28 30 29 29 30 31 33 35 35 36 36 36 37 38 38 38 37 36 33 32 31 30 29 28 27 26 26 25 25 25 25 26 25 25 25 25 24 24 25 25 25 26 25 25 25 26 25 25

GFSSGP_925_temp_075.txt.gz
Temp
21 23 24 23 25 27 29 29 29 33 33 35 34 33 31 32 29 27 26 26 26 25 23 22 21 21 22 22 22 22 22 21 21 21 21 21 21 21 21 21 21 21 21 21 21 21 21 21 21
26 26 25 25 27 28 29 28 30 31 33 34 33 33 32 30 30 28 27 26 25 25 24 23 22 21 21 22 22 22 21 21 22 22 21 21 21 21 21 21 21 21 21 21 21 20 21 21 21
25 26 26 27 30 29 31 32 32 33 34 33 32 34 31 29 29 29 27 26 26 25 26 22 22 22 22 22 22 22 21 21 21 22 21 21 21 21 21 21 21 21 21 21 21 20 21 20 20
26 26 28 28 31 32 31 31 34 34 31 32 33 31 30 30 29 28 28 26 26 26 25 22 22 22 21 21 22 22 21 21 22 21 21 21 21 21 21 21 21 21 21 21 21 20 21 21 21
27 26 27 30 30 32 33 31 34 32 32 33 32 30 28 29 29 29 27 27 28 28 24 23 21 21 21 21 21 21 21 21 21 21 21 21 21 21 21 21 21 21 21 21 21 21 22 21 21
25 28 28 27 31 32 33 34 35 33 32 33 31 30 28 27 29 29 28 27 30 28 26 23 21 21 21 21 21 21 21 21 21 21 21 21 21 21 21 21 21 21 21 21 21 21 21 21 22
27 28 29 32 31 31 34 33 34 33 34 33 33 30 29 29 28 28 30 30 30 28 26 24 23 22 21 21 21 21 21 21 21 21 21 21 21 21 21 21 21 21 21 21 21 22 22 22 22
31 29 28 31 32 29 35 35 34 34 31 35 34 30 28 30 28 28 30 30 30 28 26 26 24 24 23 22 21 21 21 21 21 21 21 22 22 22 22 23 21 21 21 21 21 22 22 22 22
33 31 31 32 35 30 34 31 32 26 34 34 34 33 30 29 29 29 30 30 29 28 27 27 26 25 25 24 22 21 21 21 22 23 23 24 25 24 23 23 21 21 21 21 22 23 23 23 23
33 34 30 29 30 25 34 33 31 35 34 33 33 33 29 29 29 30 31 30 30 29 28 28 28 27 25 26 23 24 23 24 24 24 23 25 25 25 25 23 22 22 22 23 23 23 22 22 24
34 33 25 29 36 34 34 32 35 35 34 34 32 30 29 30 30 31 31 30 30 29 29 29 28 27 27 26 26 26 25 26 25 25 25 26 25 25 25 24 24 23 23 24 24 23 23 22 25
33 34 35 29 36 33 32 33 36 33 24 35 33 30 30 30 32 31 31 30 30 29 29 28 27 27 27 27 27 28 27 27 26 25 25 25 25 26 25 26 26 26 25 26 26 25 26 26 23
34 35 36 35 35 35 35 34 31 35 36 35 33 30 30 31 31 31 31 30 29 29 29 28 27 26 26 26 27 28 28 28 27 25 26 27 25 26 25 26 25 25 26 26 25 26 26 26 27
36 35 36 36 36 36 33 35 36 35 36 34 32 31 31 31 32 31 31 30 29 29 28 27 26 25 25 26 26 27 27 27 28 27 25 25 24 25 25 26 25 26 24 25 26 26 25 26 26
35 34 35 36 36 36 36 34 35 35 35 33 32 32 32 32 31 31 31 30 29 28 28 27 26 25 25 25 25 26 26 28 27 25 25 25 24 24 26 26 25 26 25 25 25 25 26 27 26
34 35 34 37 36 36 36 35 36 35 35 33 33 32 32 32 32 31 30 30 29 29 28 27 27 26 25 25 25 26 27 28 26 26 26 25 24 24 25 26 26 26 25 24 26 26 24 26 26
34 34 34 36 38 37 36 34 27 36 35 34 33 33 32 32 31 31 30 30 29 28 28 27 27 27 25 25 25 26 27 27 27 27 25 26 25 24 25 26 25 24 26 27 27 26 25 27 26
34 35 37 36 38 37 37 34 26 31 35 34 34 33 33 32 32 30 30 30 29 28 27 27 27 27 25 25 25 26 26 27 27 27 27 26 26 25 24 26 25 26 26 26 27 27 26 26 27
36 37 36 38 39 37 36 36 28 34 36 35 34 33 33 33 33 31 30 30 29 29 28 27 26 26 25 25 25 26 27 27 28 28 27 26 26 25 25 26 25 26 27 24 26 26 26 28 28
35 35 36 38 39 38 37 36 36 35 35 35 35 33 33 33 32 31 30 30 30 29 28 26 26 25 25 25 26 27 28 28 28 28 26 26 26 25 26 25 25 25 26 25 25 25 26 28 28
33 34 35 36 37 38 37 36 35 28 33 36 36 35 34 33 33 32 31 30 30 29 28 26 26 25 24 26 26 26 27 28 28 28 27 26 26 26 26 25 23 24 25 26 25 26 26 26 28
32 34 34 35 36 34 36 35 37 31 25 35 36 36 35 34 34 33 32 31 30 29 28 27 25 25 24 25 26 26 27 28 29 28 28 27 27 27 25 25 25 25 25 26 26 26 26 27 28
32 34 34 34 34 35 36 35 37 38 35 36 36 36 36 35 34 34 33 31 31 30 29 27 25 25 25 24 26 26 27 28 28 29 28 28 26 27 27 26 25 25 25 25 26 25 25 27 28
33 33 33 34 34 32 34 36 37 37 37 36 37 37 36 36 35 35 33 32 31 30 29 28 26 25 24 24 25 26 26 28 29 28 28 27 28 26 26 26 26 25 26 25 25 25 25 25 26
32 32 31 31 31 32 35 35 37 39 37 37 38 37 37 37 36 35 34 33 31 31 30 29 27 25 24 24 24 25 26 26 28 27 28 28 29 29 27 26 26 26 25 25 25 24 25 25 26
31 32 31 30 32 34 35 34 36 39 38 36 38 38 38 37 37 36 35 34 32 31 30 30 28 25 25 25 25 24 25 26 27 27 28 28 29 29 28 26 26 26 26 25 25 25 25 26 25
32 31 34 34 36 35 36 36 38 38 38 36 31 38 38 38 37 36 36 34 33 32 31 30 29 26 25 25 25 24 24 25 27 28 27 28 29 29 29 27 26 26 26 26 26 26 25 25 25
32 34 31 32 31 32 36 36 36 37 37 38 37 38 39 39 38 38 37 35 34 32 31 30 29 27 26 26 25 25 24 25 26 27 27 27 28 28 28 27 26 26 26 26 25 27 26 26 25
30 30 31 33 33 32 33 36 39 37 37 38 38 38 39 39 39 38 38 36 34 33 32 31 29 28 26 26 26 26 25 25 25 26 26 26 27 27 26 27 26 26 26 26 25 26 27 26 26
31 31 31 30 31 33 34 35 39 39 39 38 38 39 39 39 39 39 39 37 35 34 33 32 30 29 27 27 26 26 26 26 26 26 26 26 26 26 26 26 26 26 26 26 26 25 27 26 27

GFSSGP_925_temp_078.txt.gz
Temp
22 22 24 24 24 26 28 28 30 32 32 34 33 32 27 26 29 26 26 26 26 24 22 21 21 22 22 22 22 21 21 21 21 21 21 21 21 21 21 21 21 21 21 21 21 21 21 21 21
24 25 25 25 25 26 26 31 31 33 34 35 34 33 31 29 29 27 27 26 26 24 23 22 21 21 22 21 21 21 21 21 21 21 21 21 21 21 21 21 21 21 21 21 21 21 21 20 21
24 26 23 26 27 25 28 32 33 34 35 35 32 32 31 28 28 27 26 27 27 25 24 22 22 22 21 21 21 21 21 21 21 21 21 21 21 21 21 21 21 21 21 21 21 21 21 21 21
25 26 26 26 29 28 31 33 34 33 33 34 32 30 30 29 29 27 27 27 27 25 23 22 22 22 21 21 21 21 21 21 21 21 21 21 21 21 21 21 21 21 21 21 21 21 21 21 21
28 26 26 29 29 31 33 34 35 33 32 33 31 29 29 29 28 27 27 27 27 25 23 22 22 22 21 21 21 21 21 21 21 21 21 21 21 21 21 21 21 21 21 21 21 21 21 21 22
27 27 27 30 31 34 34 34 33 34 33 32 31 29 29 28 27 28 28 28 28 25 24 22 21 21 21 21 21 21 21 21 21 21 21 21 21 21 21 21 21 21 21 21 21 21 21 21 23
29 27 28 28 32 33 34 35 34 33 33 32 32 29 29 29 27 28 29 29 28 26 24 22 22 21 21 21 21 21 21 21 21 21 21 22 21 21 21 21 21 21 21 21 21 21 21 23 23
31 29 25 29 30 26 32 34 32 27 31 33 33 29 29 29 28 29 30 29 28 27 25 24 23 22 22 21 21 22 22 21 21 22 21 22 22 22 21 22 21 21 21 21 21 22 22 24 24
34 31 28 28 27 25 32 33 29 28 29 31 32 32 31 29 30 30 29 30 28 27 26 25 24 23 23 22 21 21 22 22 22 22 23 23 23 23 22 23 22 21 21 22 21 22 23 23 23
32 32 29 26 26 23 26 33 30 29 30 33 34 32 30 30 30 30 32 30 29 28 28 27 27 25 25 24 23 22 22 22 23 23 23 21 24 24 23 23 23 23 23 23 22 23 23 23 22
34 32 28 24 23 26 29 34 33 29 31 34 31 30 31 30 31 31 32 31 29 29 29 28 26 26 26 25 24 24 24 24 24 24 24 24 24 24 24 23 23 24 24 23 22 23 24 23 23
34 35 31 27 24 25 29 31 28 32 30 31 32 32 32 31 31 32 32 31 29 29 30 27 27 27 26 26 25 26 25 24 26 25 25 25 25 24 24 24 24 23 25 23 21 22 24 25 25
35 35 35 30 29 33 30 26 26 30 32 30 32 32 32 32 32 32 32 31 30 30 29 27 27 26 26 27 27 27 27 27 26 26 25 25 25 24 25 25 25 24 23 22 25 23 23 24 25
36 37 36 33 30 36 30 28 27 26 32 32 31 31 32 32 33 32 32 31 30 30 29 27 27 26 26 26 27 28 28 27 27 26 25 24 25 25 26 25 24 22 24 23 23 26 25 25 25
36 35 36 37 37 37 37 34 31 29 34 33 31 31 32 33 32 32 32 31 30 29 29 27 27 26 26 25 26 27 28 27 27 25 25 26 25 25 25 25 25 24 25 26 25 25 25 26 26
35 35 34 37 37 37 37 34 33 34 30 33 32 31 32 32 33 32 32 31 30 30 28 27 27 26 26 25 26 26 27 26 27 26 25 25 25 25 25 26 26 25 26 25 25 25 24 26 27
34 33 34 36 38 37 37 34 29 24 29 33 33 32 32 31 32 32 32 31 30 29 28 27 27 26 25 25 25 26 27 26 26 25 25 25 25 25 25 26 26 26 26 26 25 27 26 25 26
33 34 35 36 38 38 37 32 27 24 25 26 33 33 31 31 32 32 32 31 30 29 28 27 27 26 25 25 25 26 27 27 26 25 26 25 25 25 26 25 26 25 26 26 26 26 26 26 27
35 36 37 38 39 38 37 31 28 26 26 23 29 33 33 31 32 32 32 31 30 29 28 27 27 26 25 25 25 26 26 27 27 26 26 26 26 25 25 25 25 25 26 26 26 26 26 27 27
34 34 36 38 39 39 38 31 27 26 27 23 25 33 34 33 31 32 32 31 30 29 27 27 27 25 25 25 25 26 27 27 28 28 27 26 26 25 25 26 25 26 25 25 26 26 26 26 28
34 34 35 36 38 39 38 31 26 26 29 28 30 35 35 34 31 32 32 31 30 29 27 27 26 25 25 26 26 26 27 28 28 27 26 26 26 26 25 25 25 25 25 25 25 25 25 26 28
33 35 35 35 36 35 38 35 29 26 25 31 31 28 35 35 33 32 32 32 31 29 28 26 26 25 25 26 26 26 27 28 28 27 27 27 26 26 26 25 25 25 25 25 25 26 26 26 26
33 35 35 35 34 35 36 36 37 31 31 30 26 28 35 35 34 33 33 32 31 30 28 26 26 25 25 26 26 26 27 28 28 28 28 27 27 27 26 26 25 25 25 25 25 25 25 26 26
34 34 34 34 34 33 35 36 36 32 31 29 31 31 33 36 35 35 33 32 31 30 29 27 25 25 25 25 25 26 26 28 28 29 27 26 27 27 27 26 25 25 25 25 25 25 25 25 26
33 32 30 30 31 32 35 35 36 38 34 31 31 34 36 36 36 35 34 33 32 31 30 28 25 25 24 24 25 25 26 27 27 29 28 27 27 26 27 27 26 26 25 25 25 25 25 25 26
32 32 31 29 31 33 35 34 36 38 39 37 36 38 37 37 35 35 34 33 32 31 30 29 26 24 24 24 25 25 26 26 26 27 28 28 28 29 27 27 26 26 25 25 25 25 25 25 25
32 31 33 32 34 33 35 36 37 39 39 37 32 31 34 27 36 36 35 34 32 31 30 29 27 25 24 24 24 25 25 26 27 27 28 28 29 29 28 27 26 26 25 25 25 25 25 25 25
32 34 31 33 30 31 34 36 36 37 38 38 36 28 26 25 29 37 36 35 33 32 31 30 28 25 25 24 24 24 25 25 27 27 27 27 28 29 27 26 26 26 26 26 25 25 25 25 25
31 31 32 32 33 31 32 35 39 37 38 39 36 28 24 24 25 33 37 36 34 33 32 31 29 26 25 25 25 24 24 25 26 26 27 27 27 28 27 27 27 26 26 26 26 26 26 26 25
31 30 31 30 29 32 33 35 38 38 39 39 39 35 33 29 22 22 33 36 35 34 33 31 30 29 26 25 25 25 25 24 25 26 26 26 27 27 27 27 26 26 26 26 26 25 26 26 26

GFSSGP_925_temp_084.txt.gz
Temp
22 22 22 22 23 23 24 25 27 29 29 30 29 29 27 26 26 23 22 22 23 22 21 21 22 22 22 22 21 22 21 21 21 21 21 20 21 20 20 20 20 21 20 20 20 21 21 21 21
22 22 22 22 24 24 24 26 28 29 30 29 29 29 27 24 24 21 21 22 23 22 22 22 22 22 22 22 21 21 21 21 21 21 21 20 20 21 20 20 20 20 21 20 21 21 21 21 21
23 23 22 23 23 24 25 27 29 30 30 29 28 28 26 23 23 23 22 23 22 22 22 22 22 22 22 22 21 21 21 21 21 21 20 21 20 21 20 20 20 20 21 20 20 20 20 20 21
23 23 22 24 23 25 24 30 31 29 26 27 27 25 26 25 24 23 22 23 22 22 22 22 22 22 21 21 21 21 21 21 21 21 21 21 21 21 20 21 21 21 21 20 20 20 20 22 22
23 23 23 24 24 27 25 27 30 29 26 27 27 25 25 25 24 22 23 22 23 22 22 21 22 22 21 21 21 22 21 21 21 21 21 21 21 21 21 21 21 21 20 20 21 20 21 23 22
23 23 25 25 25 24 25 24 30 27 27 27 26 25 23 24 23 23 22 23 22 22 21 22 22 22 21 21 21 21 21 21 21 21 21 21 21 21 21 21 21 21 21 21 21 21 22 23 22
23 24 25 26 24 23 23 23 26 27 27 27 27 24 24 25 24 23 23 23 23 22 21 21 21 21 21 21 21 21 21 21 21 21 21 21 21 21 21 21 21 21 21 21 21 22 22 22 22
25 25 26 25 24 24 23 23 27 27 28 28 28 24 24 25 25 23 22 22 22 21 21 21 21 21 21 21 21 21 21 21 21 21 21 21 21 21 21 21 21 21 21 21 21 22 22 23 22
28 25 25 27 27 24 22 22 23 27 27 29 27 26 26 26 24 23 22 21 21 21 22 22 21 22 22 21 21 21 21 21 21 21 22 22 21 21 21 21 21 21 21 22 22 22 23 23 23
25 24 27 27 26 24 23 22 24 25 25 24 25 27 26 26 25 23 22 21 21 21 22 22 22 22 22 22 22 22 22 22 22 22 22 22 22 21 22 21 21 21 22 23 23 23 23 23 23
27 26 26 26 25 26 25 24 25 25 25 25 25 26 26 26 26 24 23 22 22 22 22 23 23 22 23 23 22 23 23 23 23 23 22 22 22 22 22 22 22 21 22 22 24 24 23 23 23
27 29 27 27 27 26 26 25 25 26 25 25 27 27 27 26 27 25 23 23 22 22 23 23 23 22 23 24 23 24 24 23 23 23 23 23 23 23 23 23 23 23 23 22 23 24 24 23 24
27 29 30 28 28 27 25 25 25 25 25 26 27 26 27 26 27 25 25 24 23 22 23 24 23 23 23 24 24 23 23 24 23 23 24 24 23 23 23 23 24 23 23 23 23 24 24 24 24
30 30 31 28 27 26 26 25 23 26 23 25 27 27 27 27 27 26 26 25 24 24 24 24 24 24 24 25 24 24 24 24 23 24 25 24 24 24 23 23 23 24 24 24 24 25 24 24 24
30 29 30 27 28 26 27 25 24 25 24 26 27 27 28 27 27 27 26 25 25 25 25 25 24 24 25 25 25 25 24 24 24 25 25 24 25 24 24 24 23 24 24 24 24 24 24 24 24
29 28 28 27 28 27 28 25 25 24 26 26 26 28 28 27 27 27 27 26 25 25 25 25 25 25 25 25 26 25 25 25 25 25 25 25 24 24 24 25 25 23 24 24 24 24 25 24 24
24 26 27 29 31 26 27 24 23 25 27 26 25 27 28 28 27 27 27 26 25 26 26 25 25 25 26 25 25 25 25 26 25 25 25 25 24 24 25 25 24 24 24 25 24 24 24 25 25
25 26 26 28 31 27 27 25 24 24 26 27 27 27 28 28 27 27 27 26 26 26 26 26 26 26 26 26 25 25 25 25 25 25 25 25 25 25 25 24 24 24 24 24 24 24 25 25 25
27 27 26 28 30 31 28 24 25 24 25 25 25 26 27 28 27 28 27 26 25 25 25 26 26 26 25 26 25 25 25 25 25 25 25 25 25 25 25 24 25 25 24 24 25 25 25 25 26
26 26 26 27 30 31 25 24 25 24 24 24 24 25 27 28 28 28 28 26 25 25 26 26 26 26 25 26 25 25 25 25 26 26 25 25 25 25 25 25 25 25 25 25 25 25 25 25 26
26 26 26 27 29 26 26 25 24 24 25 24 24 26 27 28 28 28 28 26 25 25 25 26 26 26 26 26 25 25 25 25 25 25 25 25 25 25 25 25 25 25 25 25 25 25 25 26 26
24 27 29 29 28 27 28 24 23 24 23 24 25 26 25 25 27 28 28 27 25 25 26 26 26 26 26 26 25 25 25 25 25 25 25 25 25 25 25 25 25 25 25 25 25 25 25 26 26
27 29 28 30 28 26 28 25 23 24 24 23 25 25 25 26 26 26 28 27 26 25 25 26 26 26 26 26 26 25 25 26 26 26 25 25 25 25 25 25 25 25 25 25 25 25 25 25 25
30 29 25 24 23 23 25 26 24 24 26 26 26 25 26 26 26 26 28 28 26 26 25 25 25 25 25 26 26 26 25 25 26 26 25 25 25 25 25 25 25 25 25 25 25 25 25 25 25
29 23 21 23 22 23 23 25 25 26 28 28 27 25 27 28 28 26 27 28 26 26 25 24 24 24 25 25 25 26 26 25 26 26 25 26 26 25 25 25 25 25 25 25 25 24 24 25 25
26 23 21 24 23 24 24 26 27 27 28 29 28 27 27 26 27 27 27 28 27 26 25 24 23 24 24 25 25 26 26 25 26 26 26 26 26 26 26 25 25 25 25 25 25 24 24 25 25
25 25 23 22 23 22 23 26 28 26 26 27 29 27 28 27 26 28 29 29 27 26 25 25 23 23 24 24 25 25 26 25 26 26 26 27 27 26 26 26 26 25 25 25 25 24 25 25 25
22 23 25 20 23 24 24 25 25 23 23 24 28 28 27 27 28 28 28 28 28 26 25 25 24 24 23 24 24 25 25 25 26 26 25 25 27 27 26 26 26 25 25 25 25 25 25 24 25
21 19 19 21 20 21 23 23 24 22 22 22 25 29 28 27 27 28 27 28 27 27 26 25 24 24 23 23 24 24 25 25 25 26 26 26 26 27 26 27 26 26 25 25 25 25 25 25 25
22 19 18 17 20 20 21 23 24 23 22 22 23 28 29 28 25 25 24 23 23 26 26 25 24 24 23 23 23 23 24 25 25 25 26 26 26 26 26 27 27 26 26 25 25 25 25 25 25

GFSSGP_925_temp_087.txt.gz
Temp
20 20 21 21 23 23 24 25 26 27 27 27 27 27 26 25 25 23 20 23 23 22 21 21 21 21 21 22 22 22 21 20 21 21 20 21 20 20 20 20 20 21 20 21 21 21 21 21 21
21 21 21 22 24 24 24 26 26 26 28 27 27 28 26 24 22 19 20 22 23 22 21 21 22 22 22 21 21 21 20 21 21 21 21 20 20 20 20 20 20 20 20 20 21 21 21 20 21
21 22 22 23 23 24 24 27 27 29 28 28 27 26 24 22 21 21 21 23 22 22 21 21 22 21 21 21 21 21 21 21 21 20 20 20 20 20 20 20 20 20 20 20 20 20 20 21 21
22 22 22 23 24 24 23 27 29 28 27 26 24 23 23 22 22 21 21 22 22 21 21 21 21 21 21 21 21 21 21 21 21 20 20 21 20 20 20 20 20 21 20 20 20 20 21 22 22
22 21 24 25 24 25 24 26 29 28 27 26 26 24 22 22 22 21 22 22 22 21 21 21 21 21 21 21 21 21 21 21 21 21 21 21 21 20 21 21 21 21 20 20 20 20 21 21 22
22 21 25 24 24 23 23 24 23 26 26 25 24 24 22 21 21 21 22 22 22 22 22 21 21 21 21 21 21 21 21 21 21 21 21 21 21 20 20 20 21 21 21 20 20 21 22 22 22
23 22 25 25 25 23 22 22 23 25 26 25 26 23 22 22 21 21 22 22 22 22 22 21 21 21 21 21 21 21 21 21 21 21 21 21 20 20 20 21 21 21 21 20 20 22 22 22 22
23 23 24 25 25 24 23 22 23 26 26 27 27 23 22 22 21 21 22 22 22 21 22 21 21 21 21 21 21 21 21 21 21 21 21 21 20 21 21 21 21 21 21 21 21 22 22 22 22
26 24 23 26 25 23 22 22 24 25 26 27 26 25 24 22 21 21 20 20 20 21 21 21 21 21 21 21 21 21 21 21 21 21 21 21 21 21 21 21 21 21 21 21 21 22 22 22 22
24 22 24 26 26 23 23 22 22 24 27 25 25 25 24 22 21 21 20 20 20 20 21 21 21 22 21 21 21 21 21 21 21 21 21 22 21 21 21 21 21 21 21 22 22 22 23 23 23
25 24 26 26 25 24 23 23 23 23 25 25 24 24 23 22 22 21 21 20 20 21 21 21 22 22 21 21 21 22 21 22 22 22 22 22 22 21 21 21 22 21 22 22 23 23 23 23 23
25 27 27 26 26 26 25 26 25 25 24 25 26 24 24 23 22 22 21 21 21 21 22 22 22 22 22 22 22 23 22 22 23 23 23 22 22 22 22 22 22 23 23 23 23 23 23 23 23
26 27 28 27 26 27 26 25 24 24 24 25 26 25 25 24 23 22 22 22 22 21 22 22 22 22 22 22 23 23 23 22 23 23 23 23 23 23 23 22 23 23 23 24 23 23 23 23 23
28 27 28 26 26 26 26 25 25 26 24 24 26 25 25 25 24 23 23 22 22 22 22 23 23 23 22 23 23 23 23 23 23 23 23 23 23 23 23 23 23 23 23 23 24 24 24 24 24
27 27 27 26 26 26 25 24 25 25 25 25 26 25 26 26 25 24 23 22 23 24 23 23 23 23 24 24 24 23 23 23 23 23 23 23 23 23 23 23 23 23 23 24 24 24 24 24 24
27 26 26 25 25 27 27 26 26 25 24 24 26 26 26 26 25 25 24 23 23 24 24 23 23 24 24 24 24 24 24 23 23 23 24 24 24 24 24 24 23 23 23 24 24 24 24 24 24
22 25 27 25 27 26 26 25 25 25 25 24 25 26 26 26 26 25 25 24 24 24 25 24 24 24 24 24 24 25 24 24 24 24 24 24 24 24 24 24 24 24 24 24 24 23 24 24 24
25 25 25 27 26 27 25 24 25 24 25 25 25 26 26 26 26 26 25 24 24 24 25 25 24 24 24 24 24 25 24 24 24 24 24 24 24 24 24 24 24 24 24 24 23 23 24 24 24
26 25 26 26 27 27 25 25 25 23 24 24 24 25 26 27 26 26 25 25 24 23 25 25 24 24 24 25 25 24 24 24 24 24 25 24 24 24 25 24 24 24 24 24 24 24 25 24 25
26 26 25 26 28 26 25 24 25 23 23 24 24 25 26 27 25 26 25 24 24 23 24 24 25 25 25 25 25 25 25 25 25 25 25 24 24 24 24 24 24 25 24 24 24 24 25 25 25
25 25 25 26 27 25 25 25 24 23 23 24 24 26 26 26 25 26 26 25 24 23 24 25 25 25 26 25 25 25 24 24 24 24 24 25 24 24 24 24 24 24 24 24 25 25 25 26 25
24 25 26 27 26 25 26 23 24 24 23 23 24 23 25 26 26 26 26 24 24 24 25 25 25 25 26 26 25 25 25 24 24 25 25 25 24 24 24 25 25 25 24 25 25 25 25 26 26
25 26 26 27 25 25 26 24 23 23 23 23 24 24 24 26 27 26 27 25 24 24 24 24 25 26 26 25 26 25 25 25 25 25 25 25 24 24 24 25 25 24 25 25 25 25 25 25 25
28 27 23 21 21 22 25 24 23 22 24 25 25 25 25 26 25 27 27 26 25 24 23 24 24 25 26 26 26 25 25 25 24 25 25 25 24 24 24 24 24 24 24 24 24 24 25 25 25
24 22 21 23 22 22 22 24 25 24 24 25 26 26 26 26 26 26 27 27 25 24 24 23 23 24 25 26 26 26 26 25 25 25 25 25 25 24 24 25 24 24 24 24 24 24 25 25 25
25 22 20 23 21 22 20 25 23 23 23 23 25 27 27 26 26 27 25 27 26 25 24 23 23 23 24 25 26 26 26 25 25 25 25 25 25 25 25 25 25 24 24 24 24 24 24 25 25
24 21 23 19 20 22 22 25 23 23 22 22 22 24 27 26 26 27 26 27 26 25 24 23 23 23 24 25 25 26 26 26 25 25 25 25 25 25 26 25 24 24 24 24 24 24 24 24 25
20 21 21 19 22 23 22 21 20 21 20 21 21 22 24 25 26 26 26 26 26 26 25 24 23 23 24 24 25 25 26 26 26 25 25 25 25 25 26 26 25 24 24 24 24 24 24 24 25
17 17 16 17 18 20 21 20 22 21 20 20 20 20 23 25 25 25 26 27 26 25 25 24 23 23 23 23 24 24 25 26 26 25 25 25 25 25 25 26 25 25 25 24 24 24 24 24 24
18 17 15 16 19 17 18 19 20 20 20 20 20 19 20 20 20 20 21 21 21 24 25 24 23 23 23 23 23 24 24 25 25 26 25 25 25 25 25 25 25 26 25 25 24 24 24 24 24

GFSSGP_925_temp_093.txt.gz
Temp
20 20 20 20 23 23 24 26 26 26 26 27 27 27 27 27 26 26 21 21 22 21 21 21 21 21 21 21 21 21 21 21 21 21 20 20 20 21 21 21 22 21 21 21 21 21 21 21 21
20 20 20 22 23 25 25 26 25 27 27 27 28 27 27 25 23 22 22 22 22 22 22 21 21 21 21 21 21 20 20 21 21 20 21 20 20 20 20 20 21 21 21 21 21 21 21 21 22
21 21 23 25 24 26 26 26 26 27 27 28 26 27 25 23 22 22 22 22 22 21 21 21 21 21 21 21 21 20 20 21 21 21 21 21 20 20 20 20 21 20 20 21 20 21 22 21 22
22 22 23 25 26 24 24 25 27 27 28 26 27 24 24 22 23 22 21 22 22 22 22 21 21 21 21 21 21 20 21 21 21 21 21 20 20 20 21 20 20 20 20 20 20 20 21 22 22
22 23 24 26 25 25 25 25 29 28 28 27 26 23 22 22 21 21 22 22 22 22 22 21 21 21 21 21 21 21 21 20 21 21 21 21 20 20 20 20 20 20 20 20 20 20 22 22 22
24 23 26 26 26 24 24 23 26 26 25 25 24 24 23 21 21 21 22 22 23 22 22 22 21 21 21 21 21 21 21 20 21 21 20 20 20 20 20 20 21 20 20 20 20 21 22 22 22
25 25 26 27 26 24 23 22 24 25 25 25 26 24 22 22 22 21 22 22 22 22 22 21 22 21 21 21 21 21 21 20 20 20 20 21 21 20 20 20 21 21 20 20 21 22 22 22 22
25 25 26 27 27 24 24 23 23 24 24 26 27 24 22 22 21 21 22 22 22 22 21 21 21 21 21 21 21 21 21 21 21 21 20 20 20 20 20 21 20 21 21 21 22 22 22 22 22
26 26 26 27 27 24 24 24 23 23 25 27 27 26 25 22 22 22 22 22 21 22 22 22 21 21 21 21 21 21 21 21 21 21 20 21 21 21 21 21 21 21 21 21 22 22 22 22 22
26 26 26 27 26 24 24 24 23 24 25 24 24 24 22 22 22 23 22 22 22 21 21 22 22 21 21 22 21 21 21 21 21 20 21 20 20 21 21 21 21 20 21 21 22 22 22 22 22
26 27 27 27 26 25 24 23 22 24 25 25 23 23 23 23 23 23 23 23 22 21 21 21 21 21 21 21 21 21 21 21 21 21 21 20 20 20 21 21 21 21 21 22 22 22 22 22 22
27 27 28 27 26 25 24 24 25 24 25 26 24 24 24 24 24 24 23 23 22 21 21 21 20 20 21 21 21 21 21 21 21 21 21 21 21 20 20 21 20 21 22 22 23 22 23 22 23
26 28 29 28 26 27 25 24 26 25 25 25 24 24 24 25 24 23 23 23 22 21 21 21 20 20 20 20 21 21 21 22 21 22 22 21 21 21 21 21 21 21 22 23 23 23 23 22 22
28 28 29 28 27 28 26 26 26 26 25 24 24 25 25 25 24 23 23 22 22 22 22 21 21 20 20 21 21 21 21 21 21 22 22 22 22 22 21 21 21 22 22 23 22 23 23 23 23
28 28 28 28 28 28 27 24 25 27 25 24 25 25 25 25 24 24 23 23 22 22 22 21 21 20 21 21 22 21 21 22 22 23 23 22 22 22 22 21 22 21 22 22 23 23 23 23 23
29 29 30 26 27 28 27 28 27 26 26 25 25 25 25 25 24 24 24 23 23 23 22 21 22 21 21 22 22 22 21 22 23 23 23 23 22 22 22 21 21 22 22 22 23 22 23 23 23
28 30 29 27 28 28 27 28 26 26 26 25 25 26 26 25 25 25 24 23 23 23 22 22 21 22 21 23 22 22 22 22 23 23 23 23 23 23 23 21 22 22 22 22 22 23 23 23 24
28 29 29 28 27 27 28 27 26 25 26 25 25 26 26 26 26 25 25 24 24 23 22 22 22 22 22 21 22 22 23 22 23 23 23 23 23 23 23 22 22 22 22 22 22 23 23 23 24
29 29 29 29 29 28 29 29 27 26 26 26 26 26 27 27 26 26 25 24 24 23 22 22 22 22 22 21 22 22 23 22 23 22 23 23 23 23 23 22 23 23 22 22 24 23 24 24 24
28 29 29 29 28 29 28 28 27 27 27 26 26 26 26 27 27 26 26 25 24 24 23 22 22 22 23 22 22 22 23 23 23 22 23 23 24 24 24 23 23 24 23 23 24 24 24 24 24
28 28 28 29 28 27 28 28 26 25 26 26 26 27 27 27 27 27 26 25 25 24 23 23 23 22 23 22 23 24 24 24 23 23 23 23 23 23 24 24 23 24 23 23 24 24 24 25 23
28 28 28 28 29 30 28 31 27 26 26 25 26 26 27 27 28 28 27 26 25 25 24 23 23 23 23 23 22 23 25 25 25 24 23 23 24 23 23 24 24 24 23 24 24 24 24 24 25
28 28 28 28 29 29 28 31 27 26 26 26 26 26 26 27 28 28 28 27 26 25 25 24 22 22 23 23 23 23 24 24 24 24 24 24 24 24 24 23 24 24 23 24 24 24 24 24 25
28 27 27 27 28 29 28 30 26 25 23 24 25 26 26 26 26 28 28 27 26 26 25 24 23 23 23 24 23 23 23 24 24 24 24 24 24 23 24 24 24 24 24 24 24 24 24 24 24
28 28 27 28 28 29 26 29 23 23 23 22 23 24 25 27 27 27 28 27 26 26 25 25 23 22 23 23 23 23 23 24 25 25 25 24 24 24 24 24 24 24 24 24 24 24 24 24 23
28 29 29 27 27 29 26 26 22 23 23 23 23 22 23 24 26 28 27 28 26 26 25 23 23 23 22 22 23 23 23 23 24 24 25 25 25 24 24 25 24 24 24 23 23 23 23 23 23
25 27 25 26 24 29 28 24 23 24 24 23 21 20 20 23 25 28 28 27 27 26 25 24 24 23 22 23 23 23 23 24 23 24 25 24 25 24 25 25 25 24 24 24 24 23 23 23 23
25 23 27 27 26 28 25 24 24 22 22 22 20 19 20 20 26 27 28 27 27 26 25 24 24 23 24 23 23 23 23 24 24 24 24 25 26 25 24 25 25 24 24 24 24 23 23 24 23
23 24 23 25 25 28 26 24 21 19 19 20 19 18 18 19 19 21 22 27 27 25 24 24 24 23 23 23 23 23 23 24 24 24 23 24 25 26 25 25 25 24 24 23 24 24 23 23 23
20 20 21 27 24 23 27 22 20 19 19 19 19 19 18 18 18 18 18 18 20 23 23 23 24 24 24 23 22 23 23 23 23 24 25 24 24 25 26 25 25 24 23 24 24 24 23 23 23

GFSSGP_925_temp_096.txt.gz
Temp
21 23 23 23 24 24 26 27 28 29 30 31 31 31 31 31 30 29 27 27 26 25 23 22 21 21 21 21 21 21 21 21 21 21 21 22 22 22 22 21 21 21 21 21 21 21 21 21 21
25 23 23 25 26 27 28 28 29 30 31 31 31 31 31 28 28 27 27 26 25 25 24 23 21 21 22 21 21 22 21 21 21 21 20 20 21 20 20 20 20 21 21 21 21 21 21 21 21
24 24 24 26 28 29 28 29 30 31 31 31 31 31 30 27 27 27 26 26 26 25 25 22 22 21 21 21 21 21 21 21 21 21 20 20 20 20 20 21 21 21 21 21 21 22 22 21 21
25 26 27 26 28 28 27 29 31 30 31 30 31 28 27 26 28 27 26 26 26 25 25 22 22 21 21 21 21 21 21 20 21 21 20 20 20 20 21 21 20 20 21 21 21 21 21 22 22
26 27 28 28 29 28 27 31 32 30 31 30 30 26 26 26 26 26 26 26 26 26 25 23 21 21 21 21 21 21 21 21 20 21 20 20 20 20 20 20 20 21 21 21 21 22 22 22 22
26 28 29 28 29 28 27 28 30 30 29 28 29 28 26 25 26 26 26 27 27 26 26 23 21 21 21 21 21 21 21 21 20 20 21 21 21 20 21 21 21 21 21 21 22 22 22 22 22
28 29 30 30 29 27 25 26 28 29 28 29 30 29 27 27 26 26 27 27 27 26 26 24 23 22 21 21 21 21 20 21 20 21 20 21 21 21 21 21 21 21 21 21 21 22 22 22 22
29 31 30 31 29 28 24 24 25 29 27 30 30 28 27 27 26 27 27 27 27 26 25 25 24 24 23 22 21 21 21 21 20 20 21 20 21 21 21 22 21 21 21 21 21 22 22 22 22
30 31 31 31 30 27 28 26 26 27 28 28 30 30 29 26 26 27 27 27 26 26 26 26 25 24 24 23 22 21 21 21 22 21 21 21 22 23 23 22 21 21 21 21 22 22 22 22 22
31 32 30 30 30 28 28 27 26 27 27 27 29 30 27 26 27 27 28 27 27 26 26 26 26 25 24 25 22 22 23 23 23 22 22 23 23 23 23 22 21 21 21 22 22 23 23 24 25
31 31 31 29 29 29 27 24 25 27 27 26 28 28 28 27 27 28 28 27 27 26 27 26 25 24 25 24 24 25 25 24 23 22 24 23 24 24 24 23 24 23 23 24 24 24 25 25 26
31 31 32 30 28 26 27 25 25 26 27 29 29 29 28 29 29 28 28 27 26 25 26 26 24 23 24 24 25 25 25 24 25 23 23 23 24 24 25 25 23 23 24 23 24 25 24 25 24
31 32 32 31 30 30 28 28 26 27 27 28 29 29 29 30 29 28 28 27 26 25 26 25 24 23 23 24 25 25 25 25 24 24 23 23 24 24 24 23 24 24 24 24 24 24 25 25 26
32 32 33 32 31 31 27 26 29 28 26 28 29 29 30 30 29 28 28 27 26 26 25 24 24 23 23 24 23 24 25 24 25 24 23 22 24 24 23 23 24 24 24 24 24 24 25 25 26
32 32 32 32 32 31 30 27 27 28 26 28 29 29 30 30 29 28 28 27 26 26 25 25 24 23 23 23 23 24 24 25 25 23 23 23 23 23 23 24 24 24 23 23 23 24 25 26 26
32 33 33 32 32 31 30 28 28 24 26 28 29 30 29 29 29 28 28 27 27 27 25 25 25 24 23 23 23 24 25 24 24 24 23 23 22 22 22 24 24 23 23 24 25 25 26 27 27
32 34 34 32 32 31 30 26 27 28 28 29 29 30 30 29 29 28 28 27 27 26 25 25 25 25 24 23 24 24 23 23 24 23 25 23 22 22 23 24 23 22 24 25 25 26 26 26 27
33 34 34 33 31 31 30 27 28 29 30 29 29 29 30 30 30 29 28 28 27 26 25 25 24 24 23 23 23 25 25 23 24 23 25 23 23 23 23 24 23 23 25 25 25 25 26 27 27
34 34 34 33 32 32 33 33 30 30 30 29 29 29 30 30 30 29 28 28 27 27 25 25 24 24 24 24 25 25 26 24 24 24 23 23 23 23 23 24 23 24 25 25 24 25 25 27 26
33 33 33 32 33 33 32 33 31 30 30 30 30 29 29 30 31 30 29 28 28 27 26 25 24 23 24 25 25 26 25 25 25 24 24 24 23 23 23 24 24 24 25 24 24 25 27 27 26
32 33 33 33 32 33 31 32 30 29 31 29 29 29 30 30 31 31 29 29 28 27 26 25 24 24 24 25 24 24 25 24 25 24 24 24 24 24 24 24 24 24 25 25 25 25 25 28 27
32 33 32 32 33 33 33 30 30 31 29 27 28 28 29 29 30 31 30 29 29 28 27 26 25 24 24 23 25 25 27 28 28 26 25 25 24 24 24 24 24 24 26 26 25 25 26 26 28
32 32 32 33 33 33 33 34 30 31 29 29 29 28 29 30 30 31 31 30 30 29 28 27 25 24 25 24 24 24 26 27 27 27 24 23 24 24 25 24 24 24 25 24 25 24 24 26 27
31 31 31 32 34 32 34 34 30 29 26 29 29 30 29 28 29 29 31 31 30 29 28 28 26 24 24 24 24 24 25 27 26 26 25 25 25 24 24 24 24 24 24 24 25 24 24 25 26
31 32 30 30 31 33 34 33 27 27 26 26 27 27 29 30 28 29 31 31 30 30 29 28 27 25 24 24 24 24 24 24 25 25 26 27 27 27 24 24 24 24 24 24 24 24 25 24 26
31 32 32 30 31 33 33 31 25 27 27 25 22 23 24 26 29 28 27 31 30 30 29 28 27 25 25 24 24 24 24 25 25 26 27 26 28 27 25 24 24 24 24 24 24 25 25 25 25
31 30 33 33 34 34 32 27 28 28 27 25 21 20 21 24 30 30 30 30 30 30 29 28 27 26 25 25 24 24 24 24 26 26 25 26 27 27 26 25 25 25 24 24 24 25 24 25 24
30 31 30 32 30 31 31 28 27 25 24 23 21 19 19 21 24 29 28 29 30 30 29 28 27 25 25 25 25 25 24 24 24 25 25 26 26 26 26 25 25 25 24 24 24 25 25 24 25
29 30 30 32 32 32 31 28 23 22 21 21 19 18 18 19 20 22 19 21 28 29 29 28 28 27 25 25 26 25 25 25 24 25 24 25 25 25 25 25 25 25 25 24 24 25 25 24 25
26 27 29 30 30 32 32 24 21 20 20 20 19 19 18 18 18 19 20 19 19 23 27 28 27 27 27 26 25 25 24 24 25 25 25 25 25 25 25 25 25 25 25 25 24 25 26 25 25

GFSSGP_925_temp_102.txt.gz
Temp
24 22 25 25 23 25 28 30 34 35 35 37 37 34 31 30 31 27 28 28 26 24 22 21 21 21 21 21 21 21 21 21 21 21 21 21 21 21 21 22 22 22 22 21 21 21 21 21 22
24 26 26 24 25 27 29 33 33 35 35 36 35 34 32 30 31 30 29 28 26 24 24 22 22 21 21 21 21 21 21 21 20 21 21 21 21 21 21 21 21 22 21 21 21 21 21 21 23
24 26 24 23 25 28 29 33 34 35 35 35 32 32 32 30 31 31 29 28 27 26 24 21 21 21 21 21 21 21 21 20 21 21 21 21 21 21 21 21 21 21 21 21 21 21 21 22 23
25 26 26 25 28 31 30 33 35 35 36 34 33 31 33 32 31 30 30 29 28 25 23 21 21 21 21 21 21 21 21 21 21 21 21 21 21 21 21 21 21 21 21 21 21 21 21 22 23
27 26 25 27 30 31 32 35 35 34 34 33 32 31 31 32 30 30 30 29 28 25 23 22 21 21 21 21 21 21 21 21 21 21 21 21 21 21 21 21 21 21 21 21 21 21 21 22 23
26 26 27 28 30 32 34 35 33 34 33 32 31 31 31 31 31 31 30 28 27 26 24 22 21 21 21 21 21 21 21 21 21 21 21 21 21 21 21 21 21 21 21 21 21 21 21 22 23
28 27 27 28 30 29 32 34 31 33 33 32 33 30 31 31 31 31 30 28 28 27 25 23 22 21 21 21 21 21 21 21 21 21 21 21 21 21 21 21 21 21 21 21 22 22 23 24 24
31 29 29 29 30 29 30 32 30 31 30 32 33 30 30 31 32 31 31 28 27 27 25 24 23 23 22 21 21 21 21 21 21 22 21 22 21 21 21 22 21 21 21 23 23 24 24 25 25
33 24 28 31 31 29 28 28 29 30 32 32 31 32 32 31 32 31 28 28 28 28 27 25 24 23 23 22 21 21 21 22 23 23 22 22 22 22 22 22 21 22 23 23 23 24 24 25 25
28 23 26 33 32 29 28 29 29 31 31 32 32 32 32 32 32 32 30 30 29 27 27 26 26 24 24 24 23 22 22 22 23 23 23 23 23 24 22 22 23 24 24 24 24 23 24 24 25
27 26 30 32 33 30 30 29 27 28 30 31 31 31 32 32 33 33 31 30 29 27 25 25 25 25 25 24 23 23 23 24 23 24 23 24 25 24 24 24 24 24 24 24 25 24 23 25 25
28 31 34 33 32 30 30 30 26 25 29 32 32 32 33 33 33 33 32 30 30 27 26 25 25 25 25 24 23 25 25 25 25 25 25 25 25 23 24 25 24 24 25 25 25 25 27 27 27
34 35 34 34 32 30 29 29 25 25 30 32 32 32 32 33 33 33 32 31 27 25 27 25 25 25 24 21 24 25 25 26 26 25 25 25 26 25 25 26 26 26 25 25 25 26 26 27 27
37 33 35 33 33 30 28 26 27 25 30 30 31 32 33 33 33 33 31 30 30 29 28 26 25 25 26 25 25 25 26 25 25 25 25 25 26 26 26 26 26 26 25 25 25 27 26 27 27
35 35 36 32 32 31 29 26 25 26 29 30 32 32 33 33 33 33 31 30 30 30 28 27 26 25 25 26 25 23 21 23 25 25 25 25 25 25 26 26 26 26 26 26 25 25 26 27 28
36 36 34 34 33 32 31 26 24 25 27 30 32 33 33 33 33 32 31 30 29 29 27 27 27 26 25 26 25 24 22 26 24 25 25 24 25 25 25 26 26 26 26 26 26 26 26 28 28
35 34 35 34 35 30 30 24 23 25 27 31 32 33 33 33 33 32 31 30 29 28 27 27 27 27 26 25 26 25 25 25 25 25 24 24 24 24 25 25 25 26 26 26 26 27 27 27 28
34 35 35 34 34 30 27 24 24 24 24 31 32 33 33 32 32 32 31 30 30 28 27 28 27 26 26 25 26 26 26 26 25 24 24 24 24 24 24 24 25 26 25 26 26 26 27 27 28
37 37 35 35 33 31 29 25 24 25 26 31 32 33 33 32 32 32 31 31 30 28 27 27 26 26 25 26 27 26 26 26 26 25 24 25 24 24 24 24 26 24 25 26 26 27 28 28 29
36 35 35 30 31 29 28 26 26 25 26 29 32 32 31 29 31 32 32 31 30 28 27 27 25 26 25 26 26 26 25 26 26 25 25 25 25 24 25 25 26 25 25 25 26 26 26 28 28
36 37 34 26 31 29 27 24 24 22 23 23 31 33 32 30 29 32 32 31 30 28 27 26 25 25 25 27 26 26 25 25 26 26 25 25 25 25 25 25 25 25 26 26 26 26 27 27 29
35 37 33 33 31 29 30 26 28 26 23 22 27 29 31 30 28 32 31 31 30 28 27 26 25 25 25 25 27 26 26 25 27 26 26 25 25 25 25 25 25 25 25 26 26 27 27 27 27
35 38 37 37 36 31 32 31 28 25 23 24 25 30 30 30 30 32 32 32 30 29 28 26 26 25 26 26 26 26 25 25 25 26 26 26 25 25 25 25 25 25 25 26 26 27 26 26 27
37 36 37 36 36 33 33 34 27 23 23 30 30 30 30 30 31 31 31 32 30 30 28 26 26 25 25 26 25 25 25 24 24 25 25 25 26 26 26 25 25 25 25 25 26 26 26 26 26
36 34 32 33 33 34 35 34 28 24 24 22 26 25 26 28 30 31 32 31 31 30 29 27 26 25 25 25 25 25 26 24 23 25 26 27 26 26 26 25 25 24 25 25 25 26 25 26 26
34 34 33 31 33 34 36 29 27 27 24 22 24 25 25 24 22 28 31 30 30 31 30 28 26 25 25 25 25 25 25 25 25 26 27 27 26 26 25 25 26 25 25 25 25 25 26 26 27
34 33 36 35 36 36 30 27 27 27 25 24 23 23 24 25 29 23 28 30 29 29 30 28 26 25 25 25 25 25 25 26 27 28 28 27 26 24 25 25 25 25 25 25 25 25 25 26 26
33 35 33 34 32 33 30 29 28 26 24 23 21 21 21 23 24 27 24 22 22 24 24 24 27 26 26 26 25 25 25 25 26 26 27 27 25 24 24 25 25 26 26 25 25 25 26 26 25
32 32 33 35 35 34 29 27 29 27 25 22 21 20 20 21 22 22 22 20 20 22 24 19 22 26 26 26 26 26 25 25 25 26 26 27 26 24 27 26 25 26 26 25 25 25 25 26 26
34 33 34 33 32 34 27 24 26 27 25 23 21 20 20 21 22 22 21 19 17 19 19 19 21 19 22 25 26 26 26 26 25 25 26 26 26 26 26 26 25 26 26 26 25 25 26 25 25

GFSSGP_925_temp_108.txt.gz
Temp
22 22 22 22 23 23 27 29 29 30 30 30 29 29 27 27 27 23 22 21 22 21 21 21 21 21 21 20 20 20 21 21 21 21 21 21 21 21 21 21 21 21 21 21 21 21 21 21 20
23 21 20 22 23 25 27 29 28 29 29 30 29 28 27 24 25 22 21 22 22 21 21 21 21 21 20 20 20 20 20 21 21 22 21 21 21 21 21 21 21 21 21 21 21 21 21 21 21
23 23 21 22 22 26 27 29 29 29 30 30 28 28 26 23 24 23 21 22 21 21 21 21 21 21 21 20 21 20 20 20 21 21 21 22 22 21 21 21 21 22 21 21 21 21 21 21 21
23 21 21 23 24 25 27 29 30 30 29 29 28 26 26 26 25 22 22 22 22 21 21 21 21 21 22 20 20 20 20 21 20 21 21 21 21 21 21 21 21 21 21 21 21 22 22 22 22
22 22 23 24 25 26 27 30 30 29 29 29 28 26 25 25 24 22 22 22 22 21 21 21 21 21 21 21 20 21 20 20 20 21 21 21 21 21 21 21 21 21 22 22 23 23 23 23 22
22 22 24 25 29 29 29 30 29 28 28 28 27 26 24 24 23 23 22 22 23 22 21 21 21 21 21 21 20 20 20 21 20 21 21 21 21 21 21 21 21 21 23 23 23 24 23 23 22
23 23 25 28 28 28 29 30 29 28 28 28 28 25 24 25 24 23 22 22 22 22 21 21 21 21 21 21 21 20 20 21 20 21 21 21 21 21 21 21 21 21 21 21 23 24 24 23 23
23 23 23 25 28 26 29 29 29 29 28 29 28 25 24 25 24 22 23 22 22 21 22 21 21 21 21 21 21 20 21 21 20 21 21 21 21 21 21 21 21 21 21 23 24 24 24 24 23
25 23 22 24 28 25 28 28 26 26 29 29 29 28 28 25 24 23 22 21 21 21 22 22 22 21 21 21 21 21 21 21 22 21 21 21 21 21 21 22 22 23 23 24 24 24 24 25 24
25 23 25 25 25 26 26 28 26 28 28 28 28 28 27 25 25 24 22 22 21 21 21 22 22 22 21 21 22 22 22 22 22 21 21 21 21 22 22 22 22 23 24 24 24 24 24 24 24
24 24 26 26 26 24 27 27 28 28 26 28 27 27 27 26 25 24 23 23 22 22 22 22 22 22 22 22 22 22 22 22 22 22 21 21 22 22 23 23 23 23 24 24 24 24 24 24 23
26 28 27 28 28 26 26 27 25 25 26 29 28 28 27 27 26 25 24 23 23 23 23 22 22 22 23 22 22 22 23 23 23 22 22 22 23 23 24 24 24 24 24 24 25 24 25 26 26
28 28 28 27 27 28 28 26 25 26 27 30 30 27 27 26 26 26 25 24 23 23 23 23 23 23 23 23 22 22 23 23 23 23 23 24 24 24 24 24 24 24 25 25 25 25 25 26 26
30 28 28 27 25 28 27 26 27 25 26 29 30 28 27 26 26 25 24 24 23 24 24 23 23 23 23 23 23 23 23 23 24 24 24 24 24 24 24 24 24 25 25 25 26 25 26 26 26
28 24 26 26 25 26 26 24 26 26 27 29 30 29 28 28 26 25 24 24 24 24 24 24 24 24 25 23 23 23 23 24 24 24 24 25 25 24 24 25 25 24 25 25 25 25 26 26 26
28 25 25 27 24 26 26 24 25 24 27 27 30 29 28 27 26 25 24 24 25 24 25 24 24 24 24 24 24 24 24 24 24 24 25 24 24 24 25 25 25 25 25 25 26 26 26 26 26
27 24 24 24 25 25 25 23 23 24 26 27 28 28 28 27 26 25 25 25 25 25 24 24 24 25 25 24 24 24 24 24 24 24 25 24 24 24 25 25 25 25 25 26 26 26 26 27 27
27 27 27 26 26 26 24 24 23 23 24 25 26 25 28 28 26 26 25 25 26 25 24 25 25 24 25 24 24 24 24 24 24 24 24 24 24 25 25 25 25 25 26 26 26 26 26 27 27
27 29 29 27 25 26 23 23 22 23 24 25 24 24 27 28 27 27 25 25 25 25 25 25 25 24 24 24 24 23 24 24 24 24 24 24 24 24 25 24 25 25 25 25 25 26 26 27 27
27 28 27 25 25 24 23 23 23 23 24 24 24 24 27 27 26 26 25 25 25 26 26 26 26 25 24 25 24 25 24 24 24 24 24 24 24 24 25 25 25 25 25 25 26 26 26 26 27
27 27 25 26 25 24 24 23 23 23 24 22 22 23 25 27 27 26 25 25 26 26 26 25 25 26 25 25 24 24 25 24 24 24 24 24 24 24 24 24 25 25 25 25 25 25 26 26 27
25 29 29 25 25 23 24 24 22 23 23 22 22 22 23 27 27 26 25 25 25 26 26 26 26 26 25 25 25 25 25 25 24 24 24 24 24 24 24 25 25 25 25 25 25 25 26 26 26
29 29 26 26 24 24 23 23 22 23 23 23 22 23 23 24 27 26 26 25 25 26 26 26 26 25 25 24 25 25 25 25 24 24 24 24 24 24 24 25 24 25 25 25 25 25 26 26 26
30 27 25 23 22 23 25 23 23 22 24 25 23 22 24 23 24 25 26 26 25 25 25 25 25 25 25 25 25 25 25 25 25 25 24 24 24 24 24 24 25 25 25 25 25 25 26 26 26
30 25 22 23 23 23 23 24 23 23 23 24 23 22 21 22 22 24 24 26 25 25 25 25 25 25 25 25 25 25 25 25 25 25 25 25 25 24 24 24 25 25 25 25 25 25 25 26 26
29 27 23 25 23 24 26 24 25 22 21 21 22 21 21 23 21 22 23 25 25 25 24 24 25 25 25 25 25 25 25 25 25 25 25 25 25 25 25 24 24 25 25 25 25 25 25 25 25
29 28 27 25 26 25 23 22 22 22 21 22 21 21 20 20 21 21 21 23 25 25 24 25 25 24 24 25 25 25 25 25 25 25 25 25 25 25 25 25 24 24 25 25 25 25 25 25 25
28 28 27 25 26 27 22 23 22 22 22 21 20 20 20 20 20 20 20 20 21 23 24 24 24 24 23 23 24 24 25 26 26 25 25 25 25 25 25 25 24 25 24 24 24 24 25 25 25
26 26 25 24 23 24 22 23 22 22 21 20 20 20 19 19 19 19 19 19 20 20 20 23 23 23 23 23 23 23 24 24 25 25 25 25 25 25 25 25 25 24 24 24 24 25 24 25 25
27 27 23 23 26 21 20 22 20 20 20 20 20 20 19 19 18 18 18 18 19 19 18 19 21 22 23 23 24 25 25 24 25 25 25 25 26 26 26 25 25 24 24 24 24 24 25 25 25

GFSSGP_925_temp_111.txt.gz
Temp
21 21 21 21 23 23 26 27 28 28 27 28 27 27 26 25 25 23 20 21 22 21 21 21 21 21 21 20 21 21 20 21 22 22 21 21 21 21 21 21 21 21 21 21 21 21 21 21 21
22 21 22 21 24 25 26 28 27 29 29 28 28 27 25 23 22 21 20 21 22 21 21 21 21 21 20 20 20 21 21 21 21 21 21 21 21 21 21 21 21 21 21 21 21 21 21 20 20
22 21 21 22 23 26 25 28 27 29 29 28 27 27 25 22 22 21 20 21 21 21 21 21 21 20 20 21 20 20 20 21 21 21 21 21 21 21 21 21 21 21 21 21 21 21 21 21 20
21 20 21 23 24 27 28 28 28 28 29 28 26 24 25 23 23 21 20 21 21 21 21 21 21 21 20 21 20 20 20 20 21 22 21 21 21 21 21 22 21 21 21 21 21 21 21 21 21
20 21 22 24 25 26 28 29 28 28 28 28 27 24 23 23 22 20 21 21 21 21 21 21 21 21 21 20 20 20 20 20 20 21 21 21 21 21 21 22 22 21 21 21 21 22 22 22 22
22 22 24 25 26 29 29 29 28 27 27 26 25 24 22 21 21 21 21 22 21 21 22 21 21 21 21 21 20 20 20 20 21 21 21 21 21 21 21 21 21 21 21 21 22 22 22 22 23
23 23 23 26 26 28 28 28 27 26 26 26 26 23 21 22 21 21 21 22 21 21 21 21 21 21 21 20 20 20 21 20 21 21 21 21 21 21 21 21 21 21 21 21 22 22 22 22 22
23 22 23 24 27 26 28 25 27 27 26 27 26 22 21 22 21 21 21 21 21 21 21 21 21 21 21 21 20 20 21 20 20 20 21 21 21 21 21 21 21 21 21 22 23 23 23 22 22
24 23 23 24 25 23 27 27 27 28 27 28 28 25 24 22 21 20 20 20 20 20 20 21 21 21 21 21 21 21 20 20 20 20 20 21 21 21 21 21 21 21 21 23 23 23 23 23 22
24 22 24 25 25 24 25 27 27 27 27 25 25 25 23 22 21 21 20 20 20 20 20 21 21 21 21 21 21 21 21 21 21 21 21 21 21 22 22 22 22 23 23 24 24 24 24 23 23
24 24 26 27 26 26 25 26 27 27 25 26 25 24 23 23 22 21 21 20 20 21 21 21 21 21 21 21 22 22 21 21 21 21 21 21 22 22 23 23 23 23 23 23 23 24 24 24 24
25 26 27 26 25 24 26 26 26 26 23 27 25 24 24 24 23 22 21 21 21 21 21 21 22 22 22 22 22 22 22 22 22 22 22 22 22 22 23 23 23 24 24 24 24 24 24 24 25
27 28 28 27 26 26 26 26 25 24 24 27 26 25 25 24 23 23 22 22 21 21 21 21 22 22 22 22 22 22 22 22 22 22 22 23 23 23 23 23 23 24 24 24 24 24 25 26 26
28 27 28 26 26 25 24 23 23 25 26 27 26 25 25 25 24 24 23 22 22 22 22 22 22 23 23 22 22 22 22 23 23 23 24 24 23 23 23 24 24 24 24 25 25 25 25 25 26
25 24 26 26 26 25 26 25 25 26 28 27 26 26 26 25 25 23 23 22 23 22 22 22 22 22 23 23 23 23 23 23 23 23 23 24 24 24 24 24 24 24 25 25 25 25 26 25 25
24 24 25 26 25 24 25 24 25 25 26 26 27 26 26 25 25 24 23 23 23 23 23 23 22 23 23 23 23 23 23 23 24 24 23 23 24 24 24 25 25 24 25 25 25 26 26 26 26
23 25 24 25 26 25 25 23 23 25 26 26 28 27 26 25 25 24 23 23 23 23 23 23 23 23 24 23 23 23 23 23 24 24 24 24 24 24 24 25 24 24 25 25 25 26 26 26 27
25 26 24 25 25 26 23 24 23 24 25 25 26 27 26 26 25 24 24 23 24 24 24 24 24 24 23 23 23 23 23 23 24 24 24 24 24 24 25 24 24 25 25 25 25 25 26 26 26
27 27 27 25 26 25 24 22 22 23 25 24 24 24 26 25 25 24 24 23 23 24 24 24 24 24 24 23 23 23 23 24 24 24 24 24 24 24 24 25 25 25 25 25 25 26 26 27 26
26 27 23 24 23 23 22 23 21 22 22 23 23 23 26 25 25 24 24 24 23 24 24 24 24 24 24 24 24 24 24 24 24 24 23 23 24 24 25 25 25 25 25 25 25 25 26 26 26
26 26 25 24 25 25 23 23 23 22 23 23 22 23 23 26 24 24 24 24 24 23 24 24 24 25 25 24 24 24 24 24 23 23 23 23 24 24 25 24 24 25 25 25 25 25 25 25 26
25 26 28 25 23 24 24 24 22 22 22 23 23 22 22 23 23 24 24 24 24 24 25 25 25 24 24 24 24 24 24 25 24 24 24 24 23 24 24 24 24 24 24 25 25 25 25 26 25
26 29 28 25 23 22 22 22 22 22 22 23 23 23 23 23 24 24 24 24 24 24 25 25 25 24 24 25 25 24 24 24 24 24 24 23 23 24 24 25 25 24 24 25 25 25 25 26 25
27 25 22 20 21 23 23 24 22 22 23 23 24 23 22 23 22 23 25 25 24 24 24 25 25 24 25 25 25 24 24 24 24 24 24 23 23 24 24 24 24 24 24 25 25 25 25 25 25
25 22 20 22 22 22 22 23 24 22 23 24 24 22 22 21 21 22 23 25 24 24 24 24 25 24 24 24 25 24 25 25 25 24 24 24 24 24 24 24 24 24 24 25 25 25 25 25 26
22 23 22 24 22 23 22 23 22 21 21 21 22 24 21 21 21 21 23 24 24 23 24 24 24 24 24 24 25 25 24 24 24 25 24 24 24 24 24 24 24 24 24 24 24 25 25 25 25
27 26 25 22 24 24 22 23 22 21 21 20 20 21 21 21 21 21 22 22 23 24 23 24 24 24 24 24 24 24 24 25 24 24 24 24 24 24 24 24 24 24 24 24 24 24 24 25 25
26 25 25 21 24 26 22 22 23 21 21 21 19 20 19 19 20 21 21 21 22 24 23 23 24 24 23 23 23 24 24 24 24 24 24 24 24 24 24 24 24 24 24 24 24 24 24 24 24
25 25 22 22 22 23 23 22 20 21 20 20 20 20 19 20 20 20 19 20 20 21 22 22 23 23 22 23 23 24 24 24 24 24 24 24 25 25 24 24 24 24 24 24 24 24 24 24 24
26 25 22 22 24 19 19 22 20 20 19 19 19 19 19 19 19 19 18 19 18 19 19 18 20 23 22 23 23 23 23 24 24 24 25 25 25 25 24 24 24 24 24 24 24 24 24 24 24

GFSSGP_925_temp_114.txt.gz
Temp
20 21 21 20 23 22 25 27 27 25 25 26 26 26 24 23 23 22 20 21 22 21 21 21 21 21 20 20 21 21 21 22 22 21 21 21 21 21 21 21 21 21 21 21 21 21 21 20 20
21 21 21 21 23 25 25 27 25 26 27 26 26 26 24 22 22 20 20 21 22 22 21 21 21 21 20 21 21 21 21 21 21 21 21 21 21 21 21 21 22 21 21 21 21 21 21 20 20
22 21 21 21 23 25 24 27 26 27 26 27 25 25 24 22 22 21 20 21 22 21 21 21 21 20 20 20 20 21 21 21 21 21 21 21 21 21 21 21 22 21 21 21 21 21 20 20 20
20 20 20 23 24 26 26 26 27 27 27 26 25 23 22 22 22 20 20 21 21 21 21 21 21 20 20 20 20 20 21 21 21 21 21 21 21 21 21 21 21 21 21 21 21 21 21 22 21
21 21 23 24 25 27 27 28 28 27 27 26 25 22 21 20 21 20 20 21 21 20 21 21 21 20 21 20 20 20 20 20 20 21 21 21 22 22 21 21 21 21 21 21 21 21 21 21 21
22 22 24 25 26 27 27 27 26 26 25 25 24 23 20 20 20 20 21 21 21 21 21 21 21 21 20 20 20 21 20 20 21 21 21 21 22 21 21 21 21 21 21 21 22 22 22 22 21
22 23 23 25 26 27 26 27 26 25 25 25 25 21 21 20 20 20 21 21 21 21 21 21 21 21 20 20 20 20 20 20 20 20 21 21 21 21 21 21 21 21 21 22 21 22 22 22 22
22 22 23 24 25 26 27 26 25 26 25 26 25 21 21 20 20 20 20 20 20 20 21 21 21 21 21 20 20 20 21 20 20 20 21 20 21 21 21 21 21 21 21 22 22 22 22 22 22
22 22 23 23 23 24 26 26 27 27 26 26 26 23 22 20 20 20 20 20 20 20 20 20 21 21 21 21 20 20 20 21 20 20 20 21 21 21 21 21 21 21 21 22 22 22 23 23 23
23 22 23 24 24 23 26 27 26 26 25 24 22 22 21 20 20 20 20 20 20 20 20 20 20 21 21 21 21 21 20 20 20 20 21 21 21 21 21 21 21 22 23 23 23 23 23 23 23
24 24 26 25 26 25 27 27 27 25 24 24 22 21 21 20 20 20 20 20 20 20 20 20 20 20 21 21 21 21 21 20 20 21 21 21 21 22 22 22 22 23 23 24 24 24 24 24 23
24 25 26 26 26 25 25 26 25 25 25 25 23 22 22 21 21 20 20 20 20 20 20 20 20 20 21 21 21 21 21 21 21 21 21 22 22 23 23 23 23 23 23 24 24 24 24 24 24
25 27 27 26 26 25 26 25 24 22 24 25 23 23 22 22 21 21 20 21 21 20 21 21 21 21 21 22 21 21 21 21 21 22 22 22 23 23 23 23 23 24 24 24 24 24 25 25 25
27 26 26 25 24 25 25 22 22 23 24 25 24 23 23 22 22 21 21 21 21 21 21 21 21 22 22 22 22 22 22 22 22 22 22 23 23 24 23 24 23 23 24 24 24 25 25 25 25
25 24 25 25 24 23 23 22 22 25 25 25 24 24 23 23 22 22 22 21 22 21 22 22 21 22 22 22 22 22 22 22 23 23 23 23 23 24 24 24 24 24 24 24 25 25 25 25 25
24 24 25 25 23 23 23 23 24 24 25 24 25 24 24 23 23 23 22 22 22 22 22 22 22 22 22 22 23 23 23 23 23 23 23 23 23 24 24 24 24 24 24 25 25 25 26 26 25
22 23 24 25 24 24 24 23 24 25 24 25 24 25 24 23 23 23 23 23 23 23 22 22 22 23 23 22 23 23 23 23 23 24 24 23 24 24 24 24 24 24 25 25 25 25 25 26 26
24 25 25 25 24 24 24 23 23 25 25 24 23 25 24 23 23 23 23 23 23 23 23 22 22 22 23 23 22 23 23 23 23 24 24 24 24 24 24 24 24 25 25 25 25 25 25 26 26
25 26 25 24 25 25 23 22 23 23 24 24 24 24 25 24 24 23 23 23 23 23 22 22 22 22 23 22 22 22 23 23 23 23 23 23 23 24 24 24 24 25 25 25 25 25 26 26 26
26 26 23 24 23 23 23 23 22 23 24 24 24 22 25 24 22 22 22 23 23 23 23 22 23 23 23 23 23 23 23 23 23 23 23 23 24 24 24 24 24 24 25 25 25 25 26 25 26
25 25 23 24 23 23 24 23 23 22 21 23 22 22 22 24 23 23 23 23 23 23 23 23 23 23 23 23 23 23 23 23 23 23 23 23 23 23 24 24 24 24 25 25 25 25 25 25 25
25 25 25 23 23 23 23 23 22 22 21 22 22 22 21 22 23 23 23 22 23 24 23 23 23 24 23 23 23 24 24 23 24 24 23 23 23 23 24 24 24 24 24 25 25 25 25 25 24
25 26 25 24 21 22 23 22 23 22 22 21 23 22 21 22 22 23 23 23 23 24 24 24 23 24 24 24 24 24 24 24 24 24 23 23 23 23 23 24 24 24 24 25 25 25 25 25 25
25 24 21 20 20 22 23 23 22 22 23 22 23 23 22 22 21 22 23 23 23 23 23 23 23 24 24 24 24 24 24 24 24 24 23 23 23 23 24 24 24 24 24 24 24 25 25 25 25
22 21 20 21 21 22 20 22 22 20 22 23 23 23 23 22 21 22 22 24 24 23 23 23 24 23 24 24 24 24 24 24 24 24 24 23 23 23 24 24 24 24 24 24 24 25 25 25 25
22 22 21 23 21 22 21 22 22 20 20 22 23 24 23 21 21 21 22 24 24 23 23 23 23 24 23 23 24 24 24 24 24 24 24 24 24 24 24 24 24 24 24 24 24 24 24 25 25
24 23 23 21 21 21 21 22 21 21 20 21 23 23 21 21 21 21 21 22 23 24 23 23 22 23 23 23 24 24 23 23 24 24 24 24 24 24 24 24 24 24 24 24 24 24 24 24 24
24 24 24 20 22 24 21 22 21 21 21 21 21 21 21 21 21 21 21 21 22 23 23 23 22 23 23 23 23 24 24 23 24 23 24 24 24 24 24 24 24 23 23 23 24 24 24 24 24
23 24 21 20 20 21 21 21 21 21 21 21 21 19 19 20 21 21 20 20 21 21 22 23 23 23 23 23 23 24 24 23 23 23 21 23 24 24 24 24 24 24 24 24 23 23 24 24 24
23 23 21 21 22 18 20 20 20 21 21 21 20 20 18 19 19 19 19 20 19 20 21 22 22 21 23 22 22 22 23 23 24 24 23 23 23 25 25 24 24 23 23 23 23 24 23 23 23

GFSSGP_925_temp_117.txt.gz
Temp
21 21 21 21 24 25 28 28 28 27 26 28 28 28 27 25 26 26 21 21 21 21 21 21 21 21 20 21 21 21 21 21 21 22 21 21 21 21 21 21 21 21 21 21 21 21 20 20 20
21 21 21 23 26 28 27 28 28 28 28 28 28 27 26 23 23 22 22 21 22 22 21 21 21 21 20 20 21 21 21 21 21 21 22 21 21 21 21 21 21 21 21 21 21 21 21 21 20
22 21 23 25 24 28 28 28 29 28 28 28 26 27 25 23 23 22 22 21 21 21 21 21 21 21 21 21 21 21 21 21 21 21 22 21 21 21 21 21 21 21 21 21 21 20 20 20 21
21 22 22 26 27 27 28 29 29 28 28 27 27 24 23 24 23 22 21 21 21 21 21 21 20 20 21 21 21 21 21 21 21 21 22 22 21 21 21 21 21 21 22 22 21 21 21 21 21
21 21 25 27 27 28 29 30 30 29 28 27 27 23 22 22 22 21 21 21 22 22 21 21 21 20 20 20 21 21 20 20 21 21 22 22 21 21 21 21 21 21 21 21 21 21 21 21 21
23 23 25 27 27 28 28 29 30 29 27 26 26 25 23 21 22 21 22 22 22 22 22 21 21 21 21 20 21 21 21 21 21 21 21 22 21 21 21 21 21 21 21 21 22 22 22 22 22
23 25 24 26 27 27 27 29 28 27 27 26 27 25 21 22 22 21 21 21 21 21 21 21 21 21 21 20 20 20 20 21 21 21 21 21 21 21 22 21 21 21 21 21 22 22 23 22 22
24 24 24 24 28 26 27 27 26 28 26 27 27 24 22 22 21 21 22 22 21 21 21 21 20 20 21 21 21 20 21 21 21 21 21 21 20 21 21 21 21 21 21 22 22 22 23 22 22
24 24 23 24 26 25 27 26 27 28 27 27 26 26 25 21 21 22 21 21 21 21 21 21 21 21 21 21 20 21 21 20 21 21 21 21 21 22 22 21 21 21 22 23 23 23 23 23 22
26 23 24 23 24 26 27 27 27 27 26 24 24 24 22 22 22 23 23 22 22 21 21 21 21 21 21 21 20 20 20 21 20 20 21 21 21 21 22 21 21 21 23 23 23 23 23 23 23
26 25 26 26 27 27 27 28 27 27 26 26 25 24 23 23 23 23 23 22 22 21 21 21 20 20 21 20 20 20 20 21 20 21 21 21 21 21 21 21 21 22 23 23 23 23 23 23 23
27 27 27 28 26 27 26 26 26 25 26 27 26 25 24 24 24 24 23 22 21 21 21 20 20 20 20 20 20 20 20 20 21 20 21 22 21 21 21 22 23 23 24 24 24 23 24 24 24
27 28 28 28 27 26 27 25 24 22 26 26 25 24 25 25 24 23 23 22 22 21 21 20 20 20 20 21 20 20 20 21 21 21 22 22 22 22 22 23 22 24 24 24 24 25 25 25 25
29 28 27 26 27 26 24 23 23 23 25 25 25 25 25 25 24 23 23 23 22 22 21 20 20 20 21 21 21 21 21 21 21 21 22 23 23 23 23 23 23 24 24 24 24 25 25 25 25
28 27 27 26 26 24 23 21 23 24 26 25 26 26 26 25 24 24 24 23 22 22 21 21 20 20 21 21 22 22 22 21 21 22 23 23 23 24 24 24 23 24 24 24 25 25 25 25 25
28 27 27 25 26 24 24 23 23 24 25 24 26 26 26 26 25 24 24 23 23 22 21 21 21 20 21 22 22 22 22 22 22 23 23 23 24 24 24 24 24 24 24 25 24 25 24 25 25
27 28 28 26 26 24 23 26 24 24 23 23 25 26 26 26 25 25 24 23 23 22 21 21 21 21 22 22 22 23 23 23 23 23 23 24 24 24 24 24 24 24 24 24 24 24 24 25 25
28 29 28 28 26 26 25 25 25 25 23 24 24 25 27 26 26 25 24 24 23 22 21 21 21 22 22 22 22 23 23 23 23 23 24 24 24 24 24 24 24 24 25 24 24 25 25 25 25
29 29 28 27 27 27 27 26 26 24 23 23 23 26 27 27 26 25 24 24 23 22 21 21 21 21 22 22 21 21 22 23 23 23 24 24 24 24 24 24 24 24 24 25 25 25 25 25 25
29 29 26 25 26 26 26 26 26 26 25 25 23 24 25 27 26 25 24 24 24 23 22 21 21 21 22 22 22 22 22 23 22 23 23 24 23 23 24 24 24 24 24 25 25 26 25 25 25
28 29 27 28 25 26 27 25 24 25 25 24 22 22 24 26 27 26 25 24 24 23 22 22 21 22 21 21 22 22 22 23 22 22 23 23 23 23 23 24 24 24 24 24 25 25 25 26 24
29 29 28 27 28 28 26 27 24 25 25 24 22 22 23 24 26 27 26 25 25 24 23 22 22 22 21 22 22 22 23 23 23 23 23 23 23 23 23 24 24 24 24 24 24 24 24 24 25
29 28 29 28 27 28 26 28 27 24 24 24 24 24 22 24 25 26 26 26 25 24 23 22 21 22 21 21 22 22 23 23 23 23 23 23 23 23 23 24 24 24 24 24 24 25 25 24 25
27 27 27 26 26 27 29 29 27 24 26 26 26 26 24 23 25 26 25 25 25 24 23 23 22 22 21 22 23 23 24 24 24 23 23 23 22 22 23 24 24 24 24 24 24 24 24 25 24
27 29 26 26 26 28 26 27 30 26 26 27 26 26 26 23 25 26 25 25 25 24 24 23 22 22 22 21 23 23 24 24 24 23 24 23 23 23 23 23 24 24 24 24 24 24 24 24 24
27 29 30 28 27 29 25 27 29 24 24 25 26 26 24 24 25 25 26 26 25 24 24 23 23 22 22 22 23 23 23 23 22 23 23 23 23 23 23 23 24 24 24 24 24 23 24 25 24
27 27 30 28 26 29 27 27 26 23 24 25 26 25 24 24 24 24 25 25 25 23 23 23 23 22 22 22 23 23 23 23 23 23 23 23 24 23 24 24 24 24 24 24 24 23 24 24 24
29 30 29 28 27 28 26 26 29 23 24 25 26 26 25 25 24 23 24 24 24 23 23 23 22 22 22 23 23 23 23 23 23 23 23 22 24 24 24 24 24 23 23 24 24 23 23 24 24
28 28 28 30 29 30 28 28 24 25 24 24 26 26 25 25 24 24 22 23 23 22 22 23 22 22 22 23 23 23 23 23 23 23 23 23 23 23 23 24 24 24 23 23 23 23 23 23 23
26 27 28 29 27 27 29 29 23 24 24 24 23 23 25 25 24 24 22 21 21 21 21 21 22 22 22 23 23 22 23 23 23 23 23 24 24 23 23 23 23 24 24 23 23 23 23 23 23

GFSSGP_925_temp_123.txt.gz
Temp
22 22 24 26 27 28 34 33 35 34 34 35 35 34 32 31 31 29 30 29 28 26 23 22 21 22 21 21 22 22 21 21 22 22 22 21 21 21 21 21 21 21 21 21 21 21 21 21 21
26 26 26 27 27 30 33 34 33 34 34 34 34 33 31 30 32 31 29 28 27 26 25 23 21 21 21 21 21 21 21 21 21 21 21 21 21 21 21 21 21 21 21 21 21 21 21 21 20
26 26 28 27 28 32 33 34 34 34 34 34 32 32 32 30 31 30 29 27 25 25 23 22 21 21 21 21 21 21 21 21 21 21 21 21 21 21 21 21 21 21 21 21 21 21 21 21 20
25 26 30 28 32 35 35 35 35 34 34 33 33 30 32 31 31 29 29 28 26 25 25 21 21 21 21 21 21 21 21 21 21 21 21 21 21 21 21 21 21 21 21 21 21 21 21 21 20
22 27 29 27 33 35 36 35 35 33 34 33 32 30 30 31 30 29 29 30 29 26 25 22 20 20 21 21 21 21 21 21 21 21 21 21 21 21 21 21 21 21 21 21 21 21 21 21 21
28 31 29 31 34 35 35 35 34 32 33 33 32 31 28 30 30 30 30 30 28 28 26 23 21 20 20 21 21 21 21 21 21 21 21 21 21 21 21 21 22 22 22 22 22 22 21 22 22
27 26 30 34 33 33 34 36 34 33 32 33 33 29 30 31 30 30 30 30 27 27 26 25 23 21 21 21 21 21 21 21 21 21 21 22 21 21 21 21 21 21 21 22 22 22 22 22 22
28 30 32 32 32 32 34 34 34 32 32 35 33 29 30 31 30 30 30 30 27 26 25 24 25 24 24 22 21 21 21 21 21 22 22 23 23 22 23 23 22 22 22 23 23 23 23 23 24
30 28 30 32 32 32 33 32 34 34 33 34 33 32 31 30 30 30 30 30 29 27 27 26 26 26 26 24 22 21 22 21 23 23 23 23 24 24 24 24 23 23 24 24 24 25 24 24 25
31 28 30 30 34 33 31 31 33 33 32 32 33 32 29 30 30 31 30 30 30 27 26 25 25 27 25 26 23 24 23 24 24 25 24 25 25 25 25 24 24 25 25 25 26 26 25 25 26
34 30 28 27 32 33 30 31 34 33 32 33 31 30 30 31 31 31 30 30 29 27 26 26 25 25 26 24 24 24 25 25 24 24 25 25 25 25 26 25 25 26 26 25 26 27 28 28 29
32 31 30 30 30 30 29 30 32 33 33 34 32 32 31 32 32 32 31 30 29 29 28 26 24 24 24 26 26 26 26 26 26 25 25 25 27 26 26 27 27 27 27 27 28 27 27 28 28
33 32 32 32 31 31 31 30 28 31 33 34 33 32 32 32 32 32 31 30 29 28 27 27 25 24 24 24 26 27 26 27 26 26 26 27 27 26 27 27 27 28 28 28 28 28 28 28 28
34 33 32 31 30 27 27 26 27 28 33 32 32 32 33 33 32 31 31 30 29 28 27 26 26 24 24 24 25 25 26 26 27 26 26 25 26 26 26 27 28 28 28 27 27 27 28 29 29
35 33 33 28 30 28 27 26 24 24 32 32 32 32 33 33 32 31 30 29 29 28 27 26 26 25 23 24 24 26 26 27 27 26 25 25 26 25 27 27 28 28 27 27 27 28 29 30 29
35 33 30 30 29 28 28 27 24 26 31 32 33 33 33 33 32 31 30 30 29 28 27 26 27 25 25 25 26 27 27 27 27 26 26 25 25 25 26 27 27 27 28 29 29 29 30 30 30
35 33 30 29 30 28 28 26 25 26 31 32 32 32 32 32 32 30 30 30 29 27 27 27 27 26 25 24 26 26 25 27 27 27 27 26 25 25 26 27 26 26 29 29 29 29 29 30 30
32 34 32 32 30 29 29 25 27 28 30 29 29 31 31 32 32 31 30 29 29 27 27 26 26 25 24 25 25 25 26 27 27 27 26 25 26 26 25 27 27 26 29 28 28 27 29 30 30
35 33 25 29 33 31 29 25 27 26 26 27 24 30 31 32 31 31 30 30 28 28 27 25 25 25 24 25 26 26 27 27 27 27 25 25 26 26 26 27 27 27 28 27 27 28 28 30 30
34 33 31 28 34 31 30 26 28 26 25 25 24 24 26 30 31 31 30 30 29 28 26 26 25 24 24 25 26 26 26 26 26 26 26 26 26 25 26 25 26 24 27 26 27 27 28 30 30
35 35 33 33 33 34 30 26 24 27 27 26 24 28 26 27 27 32 31 30 30 29 27 26 24 24 24 25 25 25 25 25 25 25 26 26 26 26 26 26 25 26 27 27 27 27 28 30 30
34 36 28 23 33 31 34 27 26 25 26 27 27 26 24 21 25 29 32 30 31 30 28 27 26 24 24 24 26 25 26 27 27 26 26 26 26 26 26 25 26 26 26 28 27 27 26 28 31
32 35 35 33 32 33 33 27 25 28 27 28 29 29 28 24 29 31 33 31 31 30 29 28 26 24 24 24 24 26 25 27 26 26 25 25 25 26 26 25 25 25 27 26 26 27 26 28 29
35 34 35 35 36 34 33 35 26 28 30 29 29 30 29 29 31 31 30 32 26 30 30 28 26 25 24 23 24 24 24 26 27 27 25 26 26 26 25 26 25 25 26 26 26 26 26 26 27
34 34 33 32 32 33 37 36 33 29 34 32 30 30 30 30 30 28 31 28 30 28 30 29 27 25 24 24 24 24 24 24 25 25 26 27 27 27 26 25 25 26 25 25 26 26 26 26 27
33 34 34 32 34 36 36 34 33 35 35 34 32 31 32 31 31 30 31 23 25 27 30 29 27 26 25 25 24 24 24 25 25 25 25 27 28 27 25 25 26 25 25 25 26 26 27 27 27
34 33 36 35 33 35 33 35 35 36 34 34 33 32 31 30 30 31 29 30 30 31 29 29 27 26 26 26 25 25 24 24 25 24 25 26 27 27 26 25 25 26 25 25 25 26 26 26 26
35 36 34 35 32 33 32 31 25 34 34 34 34 34 32 30 30 30 28 29 28 31 30 29 28 26 26 27 26 25 26 25 24 24 24 26 26 26 26 26 26 25 26 25 25 27 26 26 26
33 33 34 36 35 34 33 33 32 35 35 34 34 34 32 30 30 30 29 31 30 30 29 29 28 27 27 27 27 26 26 26 24 25 25 25 25 26 25 25 26 26 25 25 25 25 25 25 26
35 34 35 33 33 35 35 29 35 34 35 35 34 34 32 30 29 29 29 30 28 23 28 28 28 28 27 27 27 26 26 26 26 26 25 25 24 24 24 25 25 26 26 26 25 25 27 26 26